     2              OBSERVATION DATA    GPS                 RINEX VERSION / TYPE
teqc 1998Jul1 Simon McClusky 99/06/22                       PGM / RUN BY / DATE
                                                            COMMENT
L2: 1 -> 1; 150 -> 5; 250 -> 9                              COMMENT
L2: 1 -> 1; 150 -> 5; 250 -> 9                              COMMENT
L2: 1 -> 1; 150 -> 5; 250 -> 9                              COMMENT
L2: 1 -> 1; 150 -> 5; 250 -> 9                              COMMENT
L2: 1 -> 1; 150 -> 5; 250 -> 9                              COMMENT
Original Marker Name: GS26                                  COMMENT
Campaign Name: China Lake May 1999                          COMMENT
4-Character Station Name: GS26                              COMMENT
6-Character Antenna Code: ASHGD3                            COMMENT
Vertical Measurement Point: TGP                             COMMENT
Vertical Offset to Rinex Ref. Point: 0.0640                 COMMENT
Radial Measurement Point: RRP                               COMMENT
Radial Offset to Rinex Ref. Point: 0.0000                   COMMENT
Antenna Height from Field Measurement: 0.2500 m             COMMENT
Additional Antenna Identification Info.:                    COMMENT
The Whopper (700718AB)                                      COMMENT
Original XYZ: -2396949.8400 -4596183.6900 3705132.6100      COMMENT
New XYZ position is based on association with SCEC monument COMMENT
E1F4E5C5+0011. Position of that monument is believed to be  COMMENT
valid to within 1 m horizontally; vertical accuracy         COMMENT
should be no worse than 3-times this value.                 COMMENT
                                                            COMMENT
Revised Rinex header created by UCSD GPS archive for        COMMENT
GSAC on 01-Aug-2000 (2000:214) 04:59:29 GMT                 COMMENT
For assistance contact dagnew@ucsd.edu                      COMMENT
or anderson@python.ucsd.edu                                 COMMENT
                                                            COMMENT
GO26                                                        MARKER NAME
_BT US NATIONAL IMAGERY MAPPING AGENCY                      OBSERVER / AGENCY
489 ASHTECH Z-XII3 4J30                                     REC # / TYPE / VERS
110 ASHTECH GEODETIC III                                    ANT # / TYPE
 -2396838.6623 -4596051.7826  3705242.6498                  APPROX POSITION XYZ
        0.1860        0.0000        0.0000                  ANTENNA: DELTA H/E/N
     1     1     0                                          WAVELENGTH FACT L1/2
     5    L1    L2    C1    P2    P1                        # / TYPES OF OBSERV
    30                                                      INTERVAL
  1999     5    11    15    12   30.000000                  TIME OF FIRST OBS
  1999     5    11    21     4   60.000000                  TIME OF LAST OBS
                                                            END OF HEADER
 99  5 11 15 12 30.0000000  0  8G27G 2G26G 4G15G 7G 9G13
                                  20849222.884
       378.23049       287.56347  20312966.747    20312975.782
                                  20312967.408
     19820.58149     13446.16847  21625423.301    21625433.326
                                  21625424.731
                                  22652285.845    23136677.714
    -19965.53749    -14268.07347  19368495.465    19368503.941
                                  19368496.172    22467553.886    23941091.390
 99  5 11 15 13  0.0000000  0  4G27G 2G26G 7
    176376.66749    126600.17047  22061004.620    22061015.098    22061005.858
       927.65049       715.63047  21512241.522    21512250.203    21512241.820
     32253.06149     23133.72947  22826959.452    22826969.102    22826960.426
    -30345.15549    -22356.11047  20565690.494    20565698.683    20565690.871
 99  5 11 15 13 30.0000000  0  8G27G 2G26G 4G15G 7G 9G13
    242991.85159    178508.01657  22073681.270    22073691.696    22073681.782
      1632.01149      1264.43647  21512375.738    21512384.276    21512375.882
     45123.68849     33162.70247  22829408.873    22829418.426    22829409.702
   -391564.61259   -284266.75855  23802954.128    23802966.796    23802955.051
    110647.12649     81416.56545  24350856.404    24350870.311    24350855.725
    -40327.20749    -30134.34747  20563791.098    20563799.211    20563791.360
   -341564.35749   -239368.03346  23622827.904    23622837.917    23622828.495
    242327.66759    176259.78455  25170326.927    25170339.544    25170327.659
 99  5 11 15 14  0.0000000  0  8G27G 2G26G 4G15G 7G 9G13
    309912.51549    230653.89947  22086416.048    22086426.300    22086416.460
      2472.83549      1919.57747  21512535.901    21512544.313    21512535.925
     58422.89849     43525.63847  22831939.820    22831949.259    22831940.551
   -519004.69649   -383570.60345  23778703.181    23778715.693    23778704.054
    150773.91849    112684.12245  24358492.914    24358506.376    24358493.800
    -49932.28249    -37618.83647  20561963.399    20561971.438    20561963.541
   -456711.98549   -329093.43146  23600916.144    23600926.010    23600916.528
    321075.76149    237621.82545  25185312.312    25185324.714    25185313.087
 99  5 11 15 14 30.0000000  0  8G27G 2G26G 4G15G 7G 9G13
    377112.35849    283017.32346  22099203.927    22099214.053    22099204.219
      3407.97049      2648.20647  21512714.005    21512722.295    21512713.924
     72120.50849     54199.02047  22834546.555    22834555.886    22834547.179
   -646468.00849   -482892.55345  23754447.812    23754460.228    23754448.522
    191306.83949    144268.12445  24366206.162    24366219.604    24366206.847
    -59203.98949    -44843.56047  20560199.060    20560207.103    20560199.166
   -571772.79849   -418751.17946  23579020.907    23579030.647    23579021.212
    399636.38149    298837.76845  25200262.034    25200274.522    25200262.767
 99  5 11 15 15  0.0000000  0  8G27G 2G26G 4G15G 7G 9G13
    444575.41549    335585.85546  22112041.863    22112051.858    22112042.088
      4402.90349      3423.43747  21512903.439    21512911.645    21512903.292
     86164.92749     65142.63947  22837219.247    22837228.497    22837219.803
   -773982.94049   -582254.71245  23730182.521    23730194.866    23730183.195
    232206.14549    176137.60745  24373989.391    24374002.617    24373989.658
    -68180.99649    -51838.65247  20558490.819    20558498.848    20558490.880
   -686779.90149   -508367.07646  23557135.848    23557145.542    23557136.087
    477991.89649    359893.88845  25215172.786    25215185.093    25215173.398
 99  5 11 15 15 30.0000000  0  8G27G 2G26G 4G15G 7G 9G13
    512303.87449    388361.19446  22124930.286    22124940.198    22124930.408
      5450.44449      4239.65747  21513102.872    21513111.013    21513102.660
    100541.48049     76345.08046  22839955.129    22839964.286    22839955.612
   -901559.84949   -681665.17545  23705905.443    23705917.745    23705906.051
    273458.75749    208282.38045  24381839.346    24381852.780    24381839.544
    -76881.04949    -58617.92847  20556835.332    20556843.316    20556835.344
   -801750.24549   -597954.34246  23535257.742    23535267.409    23535257.959
    556126.85049    420778.11045  25230041.598    25230053.739    25230042.064
 99  5 11 15 16  0.0000000  0  8G27G 2G26G 4G15G 7G 9G13
    580282.80749    441331.69246  22137866.387    22137876.208    22137866.434
      6532.53049      5082.79547  21513308.893    21513316.977    21513308.612
    115226.28649     87787.70347  22842749.641    22842758.738    22842750.071
  -1029210.10449   -781132.78545  23681614.327    23681626.651    23681614.955
    315045.39649    240687.46245  24389753.190    24389766.555    24389753.245
    -85336.72449    -65206.78847  20555226.326    20555234.287    20555226.301
   -916697.59149   -687523.68046  23513384.040    23513393.720    23513384.225
    634023.97449    481477.03445  25244865.108    25244877.188    25244865.539
 99  5 11 15 16 30.0000000  0  8G27G 2G26G 4G15G 7G 9G13
    648479.18349    494471.63146  22150843.856    22150853.601    22150843.848
      7597.77249      5912.81547  21513511.724    21513519.752    21513511.378
    130172.24649     99433.83047  22845593.853    22845602.935    22845594.240
  -1156979.27549   -880693.06445  23657300.562    23657312.959    23657301.220
    356939.61149    273332.20045  24397725.594    24397738.826    24397725.575
    -93573.45749    -71625.02847  20553659.009    20553666.924    20553658.936
  -1031639.30349   -777088.61846  23491511.441    23491521.070    23491511.559
    711636.48549    541954.17445  25259634.502    25259646.438    25259634.861
 99  5 11 15 17  0.0000000  0  8G27G 2G26G 4G15G 7G 9G13
    716863.90749    547758.33046  22163857.133    22163866.866    22163857.092
      8625.55149      6713.64047  21513707.418    21513715.398    21513707.023
    145354.18249    111263.83447  22848482.992    22848492.045    22848483.338
  -1284884.20749   -980359.13245  23632960.974    23632973.422    23632961.656
    399119.30849    306199.37945  24405752.470    24405765.314    24405752.145
   -101609.82249    -77887.13747  20552129.815    20552137.681    20552129.704
  -1146587.03049   -866658.26146  23469637.723    23469647.297    23469637.784
    788914.84549    602170.90545  25274340.334    25274352.021    25274340.630
 99  5 11 15 17 30.0000000  0  8G27G 2G26G 4G15G 7G 9G13
    785427.87449    601184.67646  22176904.494    22176914.236    22176904.441
      9622.94549      7490.79047  21513897.273    21513905.253    21513896.859
    160800.89149    123300.15347  22851422.474    22851431.508    22851422.794
  -1412899.53849  -1080111.24945  23608600.372    23608612.810    23608601.081
    441593.39748    339295.95945  24413835.058    24413848.108    24413834.702
   -109435.14149    -83984.79347  20550640.734    20550648.597    20550640.612
  -1261524.31749   -956219.76046  23447765.919    23447775.484    23447765.981
    865854.11349    662123.47845  25288981.588    25288993.162    25288981.819
 99  5 11 15 18  0.0000000  0  8G27G 2G26G 4G15G 7G 9G13
    854132.31749    654720.49546  22189978.598    22189988.342    22189978.525
     10581.24549      8237.47747  21514079.659    21514087.648    21514079.259
    176501.39249    135534.24147  22854410.272    22854419.281    22854410.560
  -1541036.85049  -1179958.39345  23584216.558    23584229.003    23584217.286
    484351.01949    372613.49845  24421971.755    24421984.480    24421971.290
   -117061.75149    -89927.61347  20549189.471    20549197.317    20549189.339
  -1376456.21049  -1045777.04446  23425895.150    23425904.713    23425895.191
    942445.44749    721804.86545  25303556.533    25303568.075    25303556.722
 99  5 11 15 18 30.0000000  0  8G27G 2G26G 4G15G 7G 9G13
    922970.97349    708360.90546  22203078.269    22203087.976    22203078.151
     11516.14149      8965.92947  21514257.647    21514265.609    21514257.208
    192447.65949    147959.82347  22857444.878    22857453.862    22857445.128
  -1669297.99049  -1279902.03545  23559809.174    23559821.669    23559809.943
    527387.33149    406148.20345  24430161.804    24430174.012    24430161.019
   -124490.69149    -95716.40247  20547775.875    20547783.669    20547775.696
  -1491389.03449  -1135335.06546  23404024.178    23404033.778    23404024.238
   1018669.48649    781200.05845  25318061.488    25318073.141    25318061.703
 99  5 11 15 19  0.0000000  0  8G27G 2G26G 4G15G 7G 9G13
    991911.74049    762080.87946  22216197.350    22216207.025    22216197.202
     12422.09349      9671.82947  21514430.115    21514438.055    21514429.677
    208618.22249    160560.17647  22860522.137    22860531.126    22860522.356
  -1797691.83949  -1379949.12045  23535376.634    23535389.064    23535377.294
    570665.98149    439871.70745  24438397.323    24438409.773    24438396.690
   -131754.43349   -101376.46347  20546393.720    20546401.469    20546393.510
  -1606360.27049  -1224923.01746  23382145.896    23382155.485    23382145.969
   1094506.42649    840293.63344  25332492.702    25332504.579    25332492.982
 99  5 11 15 19 30.0000000  0  8G27G 2G26G 4G15G 7G 9G13
   1060933.38349    815863.88146  22229331.818    22229341.501    22229331.663
     13297.97549     10354.29647  21514596.846    21514604.771    21514596.394
    224986.73349    173314.78447  22863637.053    22863646.081    22863637.268
  -1926237.31149  -1480114.35045  23510915.155    23510927.577    23510915.846
    614174.94949    473774.67245  24446676.880    24446689.212    24446676.251
   -138849.42749   -106905.03247  20545043.666    20545051.390    20545043.440
  -1721387.96549  -1314554.97046  23360256.877    23360266.478    23360256.962
   1169961.18749    899089.44744  25346851.215    25346863.318    25346851.496
 99  5 11 15 20  0.0000000  0  8G27G 2G26G 4G15G 7G 9G13
   1130061.41449    869729.77746  22242486.520    22242496.227    22242486.355
     14168.61749     11032.67947  21514762.577    21514770.497    21514762.119
    241544.90649    186217.17647  22866788.053    22866797.114    22866788.259
  -2054931.97649  -1580395.83545  23486425.359    23486437.737    23486426.010
    657927.09949    507867.14345  24455002.738    24455014.959    24455002.007
   -145759.28449   -112289.34347  20543728.842    20543736.536    20543728.600
  -1836455.69449  -1404218.08746  23338360.242    23338369.840    23338360.325
   1245057.44449    957605.82844  25361141.623    25361153.678    25361141.874
 99  5 11 15 20 30.0000000  0  8G27G 2G26G 4G15G 7G 9G13
   1199313.91149    923692.65146  22255664.947    22255674.664    22255664.761
     15028.26149     11702.49947  21514926.263    21514934.146    21514925.777
    258290.79449    199265.83047  22869974.759    22869983.834    22869974.949
  -2183760.07949  -1680781.30446  23461910.176    23461922.523    23461910.768
    701919.58049    542146.91945  24463374.489    24463386.595    24463373.679
   -152472.27549   -117520.24547  20542451.457    20542459.144    20542451.212
  -1951548.57749  -1493900.83246  23316458.843    23316468.395    23316458.926
   1319791.49249   1015839.98244  25375363.244    25375375.326    25375363.411
 99  5 11 15 21  0.0000000  0  8G27G 2G26G 4G15G 7G 9G13
   1268697.91649    977758.00046  22268868.422    22268878.149    22268868.214
     15872.42949     12360.25547  21515086.967    21515094.863    21515086.486
    275250.50749    212481.10547  22873202.134    22873211.241    22873202.336
  -2312698.37649  -1781252.64546  23437374.083    23437386.320    23437374.630
    746173.38048    576630.38345  24471795.502    24471807.912    24471795.025
   -158965.91849   -122580.23547  20541215.813    20541223.481    20541215.559
  -2066633.09549  -1583577.05146  23294559.001    23294568.554    23294559.079
   1394189.57949   1073812.34244  25389521.005    25389532.895    25389521.098
 99  5 11 15 21 30.0000000  0  7G27G 2G26G 4G15G 7G 9
   1338210.99649   1031923.92346  22282096.455    22282106.196    22282096.214
     16685.32149     12993.64247  21515241.690    21515249.614    21515241.203
    292409.50149    225851.66247  22876467.473    22876476.579    22876467.658
  -2441761.47849  -1881821.24246  23412814.170    23412826.401    23412814.696
    790689.86349    611318.35345  24480267.062    24480279.017    24480266.423
   -165253.07449   -127479.32347  20540019.441    20540027.121    20540019.176
  -2181700.70149  -1673240.09346  23272662.371    23272671.908    23272662.453
 99  5 11 15 22  0.0000000  0  7G27G 2G26G 4G15G 7G 9
   1407864.48149   1086199.25146  22295351.214    22295360.938    22295350.947
     17445.27949     13585.77547  21515386.353    21515394.302    21515385.881
    309781.03649    239387.83547  22879773.315    22879782.386    22879773.463
  -2570939.45349  -1982479.35446  23388232.386    23388244.569    23388232.934
    835462.81249    646206.27245  24488787.447    24488799.030    24488786.512
   -171362.02849   -132239.55647  20538856.978    20538864.656    20538856.726
  -2296747.81449  -1762887.17046  23250769.641    23250779.116    23250769.724
 99  5 11 15 22 30.0000000  0  7G27G 2G26G 4G15G 7G 9
   1477667.69149   1140591.25346  22308634.433    22308644.154    22308634.148
     18169.61449     14150.15647  21515524.266    21515532.211    21515523.775
    327395.39349    253113.22447  22883125.323    22883134.407    22883125.460
  -2700210.70849  -2083210.14345  23363632.899    23363644.990    23363633.410
    880506.53649    681305.23145  24497358.950    24497370.771    24497358.160
   -177281.54649   -136852.17247  20537730.534    20537738.263    20537730.313
  -2411767.03149  -1852512.49746  23228882.227    23228891.680    23228882.318
 99  5 11 15 23  0.0000000  0  7G27G 2G26G 4G15G 7G 9
   1547617.95249   1195097.85046  22321945.631    22321955.351    22321945.336
     18865.92549     14692.70247  21515656.800    21515664.765    21515656.321
    345250.66749    267026.34546  22886523.094    22886532.234    22886523.260
  -2829581.67949  -2184018.62845  23339014.390    23339026.434    23339014.895
    925821.13549    716615.19845  24505981.903    24505994.031    24505981.243
   -183025.38249   -141327.89647  20536637.561    20536645.289    20536637.324
  -2526771.70549  -1942126.50546  23206997.592    23207007.017    23206997.685
 99  5 11 15 23 30.0000000  0  7G27G 2G26G 4G15G 7G 9
   1617744.63649   1249741.91846  22335290.397    22335300.124    22335290.104
     19563.30349     15236.07847  21515789.531    21515797.535    21515789.082
    363358.41149    281136.18746  22889968.986    22889978.106    22889969.139
  -2959037.11349  -2284892.92945  23314379.729    23314391.823    23314380.284
    971415.38149    752143.08445  24514658.388    24514670.302    24514657.553
   -188587.85749   -145662.30047  20535579.095    20535586.809    20535578.861
  -2641756.34849  -2031724.89546  23185116.709    23185126.168    23185116.826
 99  5 11 15 24  0.0000000  0  7G27G 2G26G 4G15G 7G 9
   1688056.64149   1304530.39646  22348670.418    22348680.168    22348670.149
     20289.71649     15802.07647  21515927.836    21515935.806    21515927.375
    381742.77349    295461.57346  22893467.540    22893476.624    22893467.658
  -3088545.67349  -2385808.62445  23289735.004    23289747.082    23289735.559
   1017299.28049    787896.71445  24523389.743    24523401.818    24523388.965
   -193957.95249   -149846.80647  20534557.235    20534564.944    20534556.999
  -2756705.41549  -2121295.57346  23163242.605    23163252.081    23163242.759
 99  5 11 15 24 30.0000000  0  7G27G 2G26G 4G15G 7G 9
   1758512.81149   1359431.20846  22362077.875    22362087.668    22362077.605
     21043.82649     16389.66147  21516071.366    21516079.352    21516070.924
    400378.04449    309982.47746  22897013.835    22897022.905    22897013.940
  -3218123.58149  -2486778.36346  23265077.109    23265089.170    23265077.680
   1063459.53549    823865.75645  24532173.768    24532185.808    24532173.077
   -199141.84549   -153886.21447  20533570.828    20533578.515    20533570.586
  -2871619.45049  -2210838.93446  23141375.164    23141384.691    23141375.316
 99  5 11 15 25  0.0000000  0  7G27G 2G26G 4G15G 7G 9
   1829120.98349   1414450.45846  22375514.248    22375524.083    22375513.985
     21837.94549     17008.42347  21516222.528    21516230.531    21516222.078
    419264.41549    324699.04946  22900607.913    22900616.972    22900608.006
  -3347755.41849  -2587790.12446  23240409.018    23240420.977    23240409.566
   1109904.26949    860056.35245  24541012.086    24541024.227    24541011.338
   -204123.01249   -157767.65947  20532622.935    20532630.652    20532622.729
  -2986463.43849  -2300327.72046  23119521.093    23119530.630    23119521.244
 99  5 11 15 25 30.0000000  0  7G27G 2G26G 4G15G 7G 9
   1899839.80149   1469555.92546  22388971.700    22388981.569    22388971.432
     22636.07849     17630.31347  21516374.462    21516382.487    21516374.009
    438357.13549    339576.39747  22904241.250    22904250.274    22904241.337
  -3477473.53249  -2688869.13146  23215724.517    23215736.386    23215725.054
   1156587.39449    896432.77045  24549895.714    24549907.926    24549894.945
   -208940.71249   -161521.72747  20531706.174    20531713.908    20531705.981
  -3101268.94849  -2389786.52746  23097674.376    23097683.885    23097674.502
 99  5 11 15 26  0.0000000  0  7G27G 2G26G 4G15G 7G 9
   1970543.21949   1524649.39446  22402426.259    22402436.117    22402425.943
     23330.22749     18171.18447  21516506.633    21516514.651    21516506.164
    457538.47049    354522.78947  22907891.453    22907900.456    22907891.514
  -3607378.04249  -2790093.39246  23191004.547    23191016.336    23191005.066
   1203398.86849    932909.16845  24558803.670    24558815.998    24558803.006
   -213700.13749   -165230.38447  20530800.539    20530808.253    20530800.327
  -3216134.74449  -2479292.29946  23075816.168    23075825.653    23075816.265
 99  5 11 15 26 30.0000000  0  7G27G 2G26G 4G15G 7G 9
   2041264.84249   1579757.04046  22415884.278    22415894.131    22415883.944
     23945.50049     18650.59547  21516623.760    21516631.803    21516623.300
    476825.55049    369551.58247  22911561.796    22911570.754    22911561.846
  -3737436.31549  -2891437.43646  23166255.325    23166267.029    23166255.802
   1250364.97049    969506.08245  24567740.939    24567753.648    24567740.379
   -218362.38349   -168863.32247  20529913.361    20529921.079    20529913.147
  -3331030.18149  -2568821.18446  23053952.276    23053961.779    23053952.380
 99  5 11 15 27  0.0000000  0  7G27G 2G26G 4G15G 7G 9
   2112127.58149   1634974.65546  22429369.141    22429378.996    22429368.815
     24582.68849     19147.07947  21516745.028    21516753.106    21516744.592
    496324.84649    384745.74346  22915272.481    22915281.426    22915272.532
  -3867532.72549  -2992811.07946  23141498.768    23141510.543    23141499.288
   1297583.09649   1006299.42445  24576726.530    24576738.818    24576725.827
   -222826.04949   -172341.52247  20529064.005    20529071.713    20529063.784
  -3445873.68549  -2658309.59946  23032098.197    23032107.729    23032098.357
 99  5 11 15 27 30.0000000  0  7G27G 2G26G 4G15G 7G 9
   2183203.69949   1690358.52646  22442894.602    22442904.424    22442894.270
     25305.67249     19710.41647  21516882.694    21516890.753    21516882.231
    516118.34049    400169.13647  22919039.088    22919048.107    22919039.184
  -3997579.99549  -3094146.49646  23116751.580    23116763.329    23116752.105
   1345128.55849   1043347.79245  24585774.435    24585786.403    24585773.622
   -227030.63949   -175617.85547  20528263.937    20528271.646    20528263.715
  -3560601.78049  -2747708.08746  23010266.105    23010275.669    23010266.314
 99  5 11 15 28  0.0000000  0  7G27G 2G26G 4G15G 7G 9
   2254479.59049   1745898.06846  22456458.093    22456467.884    22456457.740
     26105.90449     20333.94647  21517035.024    21517043.086    21517034.564
    536202.64149    415819.12146  22922861.053    22922870.159    22922861.158
  -4127591.96049  -3195454.39946  23092011.069    23092022.821    23092011.592
   1392997.42849   1080648.16945  24594883.662    24594895.597    24594882.861
   -230981.12549   -178696.18147  20527512.199    20527519.931    20527511.987
  -3675213.11349  -2837015.57946  22988456.269    22988465.815    22988456.471
 99  5 11 15 28 30.0000000  0  7G27G 2G26G 4G15G 7G 9
   2325981.38749   1801613.63146  22470064.597    22470074.359    22470064.198
     26984.83649     21018.80247  21517202.274    21517210.384    21517201.855
    556592.59349    431707.26447  22926741.182    22926750.343    22926741.307
  -4257560.67549  -3296728.60446  23067278.790    23067290.534    23067279.345
   1441195.48249   1118204.96945  24604055.222    24604067.726    24604054.598
   -234670.12149   -181570.74647  20526810.253    20526817.966    20526810.042
  -3789707.29649  -2926231.80746  22966668.754    22966678.255    22966668.954
 99  5 11 15 29  0.0000000  0  7G27G 2G26G 4G15G 7G 9
   2397691.87249   1857491.80946  22483710.778    22483720.524    22483710.352
     27929.78449     21755.09547  21517382.102    21517390.244    21517381.697
    577289.49049    447834.59546  22930679.767    22930688.946    22930679.897
  -4387502.32949  -3397981.71646  23042551.678    23042563.401    23042552.229
   1489713.94649   1156011.59245  24613288.148    24613300.405    24613287.450
   -238095.69349   -184240.04947  20526158.444    20526166.133    20526158.234
  -3904091.36149  -3015362.22946  22944902.247    22944911.667    22944902.420
 99  5 11 15 29 30.0000000  0  7G27G 2G26G 4G15G 7G 9
   2469623.73449   1913542.48746  22497399.049    22497408.846    22497398.645
     28959.04449     22557.08047  21517578.009    21517586.149    21517577.607
    598309.60649    464213.78046  22934679.845    22934689.076    22934679.987
  -4517406.08149  -3499205.30346  23017831.806    23017843.478    23017832.318
   1538573.82649   1194084.12145  24622585.855    24622598.370    24622585.152
   -241229.67449   -186682.13647  20525562.096    20525569.753    20525561.888
  -4018321.48549  -3104372.69246  22923164.990    22923174.385    22923165.135
 99  5 11 15 30  0.0000000  0  7G27G 2G26G 4G15G 7G 9
   2541801.83949   1969785.03746  22511134.162    22511144.005    22511133.809
     30092.84349     23440.52047  21517793.805    21517801.956    21517793.388
    619665.64149    480854.71646  22938743.870    22938753.139    22938744.011
  -4647253.45949  -3600384.97046  22993122.636    22993134.229    22993123.160
   1587790.43049   1232434.70045  24631951.272    24631964.024    24631950.786
   -244040.37549   -188872.31247  20525027.256    20525034.917    20525027.054
  -4132367.95249  -3193240.04946  22901462.651    22901472.077    22901462.811
 99  5 11 15 30 30.0000000  0  7G27G 2G26G 4G15G 7G 9
   2614212.39749   2026208.72946  22524913.563    22524923.425    22524913.198
     31314.41349     24392.34847  21518026.288    21518034.478    21518025.877
    641342.09549    497745.34046  22942868.912    22942878.169    22942869.023
  -4777040.55649  -3701517.67846  22968424.884    22968436.473    22968425.447
   1637347.54549   1271050.67545  24641381.692    24641394.427    24641381.248
   -246522.84349   -190806.72447  20524554.877    20524562.548    20524554.683
  -4246244.83849  -3281975.26746  22879792.586    22879802.071    22879792.747
 99  5 11 15 31  0.0000000  0  7G27G 2G26G 4G15G 7G 9
   2686842.95049   2082803.84646  22538734.845    22538744.684    22538734.465
     32634.39749     25420.86147  21518277.511    21518285.711    21518277.103
    663328.61649    514877.58446  22947052.894    22947062.182    22947053.016
  -4906764.67549  -3802601.29946  22943739.107    22943750.681    22943739.707
   1687241.62249   1309929.12745  24650876.272    24650889.181    24650875.854
   -248684.09749   -192490.83847  20524143.610    20524151.295    20524143.432
  -4359928.54849  -3370559.95946  22858159.303    22858168.800    22858159.467
 99  5 11 15 31 30.0000000  0  7G27G 2G26G 4G15G 7G 9
   2759703.27349   2139578.01546  22552599.801    22552609.684    22552599.426
     34057.90749     26530.04747  21518548.415    21518556.642    21518548.016
    685602.43849    532233.71046  22951291.562    22951300.898    22951291.683
  -5036418.69149  -3903630.30146  22919066.698    22919078.213    22919067.316
   1737465.63249   1349064.68845  24660433.790    24660446.690    24660433.219
   -250560.68349   -193953.12847  20523786.557    20523794.238    20523786.369
  -4473420.81349  -3458995.46546  22836562.450    22836571.932    22836562.614
 99  5 11 15 32  0.0000000  0  7G27G 2G26G 4G15G 7G 9
   2832763.34749   2196507.83046  22566502.756    22566512.711    22566502.402
     35568.30249     27706.92447  21518835.898    21518844.108    21518835.496
    708118.60049    549778.66846  22955576.358    22955585.736    22955576.462
  -5166023.24449  -4004620.76346  22894403.691    22894415.183    22894404.337
   1787983.86449   1388429.55445  24670047.102    24670059.906    24670046.513
   -252190.63449   -195223.23647  20523476.367    20523484.105    20523476.206
  -4586766.44749  -3547316.71846  22814993.497    22815002.990    22814993.671
 99  5 11 15 32 30.0000000  0  7G27G 2G26G 4G15G 7G 9
   2906047.65149   2253612.36846  22580448.290    22580458.389    22580448.024
     37213.03949     28988.48847  21519148.939    21519157.141    21519148.526
    730904.28849    567533.65546  22959912.443    22959921.881    22959912.532
  -5295546.35449  -4105547.76146  22869756.205    22869767.673    22869756.838
   1838826.96349   1428047.55845  24679722.188    24679735.072    24679721.736
   -253557.96849   -196288.70647  20523216.222    20523223.946    20523216.039
  -4699940.25349  -3635504.07846  22793457.255    22793466.704    22793457.403
 99  5 11 15 33  0.0000000  0  7G27G 2G26G 4G15G 7G 9
   2979550.52049   2310887.20646  22594435.449    22594445.650    22594435.208
     38999.73549     30380.66647  21519488.970    21519497.183    21519488.575
    753955.69349    585495.68746  22964299.057    22964308.527    22964299.157
  -5424984.97049  -4206408.93146  22845124.814    22845136.244    22845125.445
   1889994.98149   1467918.73845  24689459.127    24689472.194    24689458.748
   -254690.90949   -197171.53147  20523000.614    20523008.369    20523000.471
  -4812938.98449  -3723555.02546  22771954.265    22771963.696    22771954.444
 99  5 11 15 33 30.0000000  0  7G27G 2G26G 4G15G 7G 9
   3053252.62749   2368317.29846  22608460.528    22608470.820    22608460.327
     40914.09049     31872.31047  21519853.281    21519861.512    21519852.898
    777272.12149    603664.22746  22968736.122    22968745.594    22968736.215
  -5554337.51649  -4307203.03646  22820509.824    22820521.219    22820510.442
   1941480.43249   1508037.37345  24699256.552    24699269.491    24699256.200
   -255589.22349   -197871.53347  20522829.723    20522837.472    20522829.551
  -4925784.84949  -3811486.84646  22750480.397    22750489.796    22750480.568
 99  5 11 15 34  0.0000000  0  7G27G 2G26G 4G15G 7G 9
   3127138.49749   2425890.58346  22622520.592    22622530.951    22622520.382
     42949.58949     33458.35747  21520240.661    21520248.897    21520240.283
    800867.99149    622050.51746  22973226.320    22973235.840    22973226.436
  -5683597.94549  -4407925.34946  22795912.324    22795923.726    22795912.953
   1993280.05849   1548400.71645  24709113.764    24709126.681    24709113.327
   -256234.58349   -198374.42547  20522706.993    20522714.700    20522706.792
  -5038458.60949  -3899284.55146  22729039.314    22729048.648    22729039.466
 99  5 11 15 34 29.9990000  0  7G27G 2G26G 4G15G 7G 9
   3201191.86149   2483594.38046  22636612.537    22636622.930    22636612.335
     45096.70849     35131.38547  21520649.347    21520657.524    21520648.926
    824762.73249    640669.69046  22977773.397    22977782.969    22977773.525
  -5812754.08649  -4508566.40446  22771334.660    22771346.053    22771335.293
   2045393.55449   1589008.63945  24719030.472    24719043.444    24719030.112
   -256633.44149   -198685.23447  20522631.104    20522638.818    20522630.915
  -5150944.74049  -3986936.05946  22707633.939    22707643.205    22707634.073
 99  5 11 15 34 59.9990000  0  7G27G 2G26G 4G15G 7G 9
   3275403.20749   2541421.28546  22650734.568    22650744.999    22650734.360
     47334.36549     36874.96347  21521075.248    21521083.391    21521074.804
    848941.81849    659510.42346  22982374.611    22982384.228    22982374.724
  -5941825.17449  -4609141.20346  22746773.173    22746784.555    22746773.819
   2097809.65949   1629852.48345  24729004.993    24729017.956    24729004.638
   -256790.38949   -198807.54447  20522601.232    20522608.958    20522601.064
  -5263253.28449  -4074449.18146  22686262.323    22686271.568    22686262.455
 99  5 11 15 35 29.9990000  0  7G27G 2G26G 4G15G 7G 9
   3349787.50849   2599382.97246  22664889.533    22664899.980    22664889.316
     49672.96249     38697.19547  21521520.290    21521528.480    21521519.865
    873420.68149    678584.75246  22987032.892    22987042.517    22987032.994
  -6070793.87449  -4709636.21246  22722231.168    22722242.514    22722231.816
   2150533.68649   1670936.09945  24739038.127    24739051.058    24739037.740
   -256688.07349   -198727.84147  20522620.721    20522628.444    20522620.561
  -5375374.56449  -4161816.37846  22664926.351    22664935.587    22664926.471
 99  5 11 15 35 59.9990000  0  7G27G 2G26G 4G15G 7G 9
   3424336.55949   2657473.03246  22679075.861    22679086.318    22679075.615
     52110.73349     40596.71347  21521984.213    21521992.435    21521983.796
    898178.42849    697876.39946  22991744.205    22991753.871    22991744.311
  -6199679.90049  -4810066.80446  22697704.846    22697716.220    22697705.536
   2203555.11749   1712251.65745  24749127.859    24749140.629    24749127.310
   -256342.37949   -198458.49347  20522686.510    20522694.241    20522686.357
  -5487321.86849  -4249048.00446  22643623.435    22643632.725    22643623.598
 99  5 11 15 36 29.9990000  0  7G27G 2G26G 4G15G 7G 9
   3499047.99149   2715689.62246  22693293.114    22693303.562    22693292.823
     54646.12349     42572.30447  21522466.757    21522474.932    21522466.318
    923201.49649    717374.79246  22996506.002    22996515.700    22996506.110
  -6328490.85249  -4910438.89446  22673192.883    22673204.229    22673193.575
   2256872.32049   1753797.51145  24759273.678    24759286.778    24759273.182
   -255748.88949   -197996.04747  20522799.481    20522807.188    20522799.323
  -5599115.16049  -4336159.62046  22622349.833    22622359.158    22622350.017
 99  5 11 15 36 59.9990000  0  7G27G 2G26G 4G15G 7G 9
   3573943.59049   2774049.70146  22707545.376    22707555.820    22707545.046
     57290.37549     44632.71947  21522970.045    21522978.183    21522969.578
    948488.51649    737078.86246  23001318.034    23001327.720    23001318.148
  -6457221.98149  -5010748.79246  22648696.130    22648707.410    22648696.781
   2310490.32749   1795577.83545  24769476.733    24769489.915    24769476.292
   -254885.61449   -197323.38747  20522963.749    20522971.488    20522963.612
  -5710734.09349  -4423135.37446  22601109.473    22601118.793    22601109.618
 99  5 11 15 37 29.9990000  0  7G27G 2G26G 4G15G 7G 9
   3649028.56749   2832557.33946  22721833.656    22721844.140    22721833.336
     60053.25949     46785.57347  21523495.849    21523504.011    21523495.379
    974044.06749    756992.17446  23006181.165    23006190.888    23006181.281
  -6585861.88649  -5110987.60846  22624216.736    22624227.978    22624217.403
   2364405.34549   1837589.61145  24779736.376    24779749.552    24779736.037
   -253749.24149   -196437.92347  20523180.041    20523187.753    20523179.867
  -5822168.48049  -4509967.31246  22579904.236    22579913.534    22579904.383
 99  5 11 15 37 59.9990000  0  6G27G 2G26G 4G 7G 9
   3724303.85049   2891213.28346  22736158.150    22736168.645    22736157.862
     62925.66049     49023.77747  21524042.434    21524050.691    21524042.013
    999844.84149    777096.56746  23011090.981    23011100.756    23011091.085
  -6714410.80349  -5211155.52946  22599754.704    22599765.850    22599755.336
   -252338.66649   -195338.79547  20523448.495    20523456.193    20523448.318
  -5933399.26049  -4596640.60746  22558737.743    22558746.999    22558737.860
 99  5 11 15 38 29.9990000  0  6G27G 2G26G 4G 7G 9
   3799780.30149   2950025.98046  22750520.988    22750531.429    22750520.656
     65904.99949     51345.30347  21524609.429    21524617.709    21524609.004
   1025895.91549    797396.00046  23016048.428    23016058.229    23016048.523
  -6842848.07349  -5311236.44146  22575313.900    22575325.019    22575314.487
   -250666.23049   -194035.62447  20523766.833    20523774.475    20523766.628
  -6044407.16349  -4683140.23146  22537613.587    22537622.844    22537613.737
 99  5 11 15 38 59.9990000  0  6G27G 2G26G 4G 7G 9
   3875454.52249   3008992.78746  22764921.455    22764931.810    22764921.107
     68993.58249     53751.96347  21525197.257    21525205.521    21525196.801
   1052185.14249    817880.99646  23021051.154    23021061.028    23021051.287
  -6971168.97849  -5411226.69346  22550895.170    22550906.309    22550895.789
   -248763.91249   -192553.32447  20524128.886    20524136.507    20524128.670
  -6155191.08149  -4769465.32746  22516532.033    22516541.328    22516532.214
 99  5 11 15 39 29.9990000  0  6G27G 2G26G 4G 7G 9
   3951371.39549   3068148.67846  22779368.137    22779378.411    22779367.745
     72244.72549     56285.29547  21525815.972    21525824.260    21525815.529
   1078748.90849    838579.91646  23026106.205    23026116.064    23026106.301
  -7099319.76449  -5511084.38446  22526508.849    22526519.981    22526509.454
   -246599.80749   -190867.03547  20524540.772    20524548.357    20524540.528
  -6265712.91249  -4855586.20246  22495500.354    22495509.695    22495500.580
 99  5 11 15 39 59.9990000  0  6G27G 2G26G 4G 7G 9
   4027464.08249   3127441.56846  22793848.278    22793858.470    22793847.850
     75602.16949     58901.46247  21526454.912    21526463.231    21526454.468
   1105527.58049    859446.29846  23031202.085    23031212.010    23031202.219
  -7227355.86949  -5610852.71346  22502144.324    22502155.467    22502144.915
   -244233.10249   -189022.87047  20524991.179    20524998.768    20524990.945
  -6376038.98649  -4941554.53746  22474505.993    22474515.301    22474506.215
 99  5 11 15 40 29.9990000  0  6G27G 2G26G 4G 7G 9
   4103710.58149   3186854.29346  22808357.631    22808367.785    22808357.198
     79081.30349     61612.44947  21527117.004    21527125.331    21527116.563
   1132550.67649    880503.14446  23036344.534    23036354.465    23036344.656
  -7355274.70349  -5710529.67346  22477802.081    22477813.263    22477802.689
   -241665.96749   -187022.53047  20525479.748    20525487.307    20525479.490
  -6486175.75449  -5027375.36446  22453547.710    22453556.957    22453547.902
 99  5 11 15 40 59.9990000  0  6G27G 2G26G 4G 7G 9
   4180116.28749   3246391.07046  22822897.286    22822907.444    22822896.871
     82710.44949     64440.32947  21527807.675    21527815.988    21527807.232
   1159837.60349    901765.58646  23041537.185    23041547.115    23041537.277
  -7483050.59649  -5810095.23946  22453487.030    22453498.256    22453487.659
   -238851.84649   -184829.73547  20526015.261    20526022.845    20526015.029
  -6596104.17949  -5113033.83747  22432629.046    22432638.269    22432629.214
 99  5 11 15 41 29.9990000  0  6G27G 2G26G 4G 7G 9
   4256675.82949   3306047.72146  22837466.244    22837476.370    22837465.809
     86486.90349     67382.99547  21528526.340    21528534.663    21528525.909
   1187405.78849    923247.19246  23046783.313    23046793.265    23046783.413
  -7610670.32849  -5909539.11946  22429201.738    22429212.975    22429202.387
   -235767.10449   -182426.06547  20526602.248    20526609.857    20526602.042
  -6705811.69149  -5198520.17747  22411752.388    22411761.611    22411752.569
 99  5 11 15 41 59.9990000  0  6G27G 2G26G 4G 7G 9
   4333344.50849   3365789.40046  22852055.958    22852066.087    22852055.506
     90364.11849     70404.16947  21529264.178    21529272.519    21529263.747
   1215225.68949    944924.92446  23052077.329    23052087.313    23052077.445
  -7738164.68649  -6008885.31846  22404940.330    22404951.545    22404940.969
   -232446.85049   -179838.87847  20527234.047    20527241.701    20527233.876
  -6815326.15149  -5283856.08347  22390912.408    22390921.662    22390912.615
 99  5 11 15 42 29.9990000  0  6G27G 2G26G 4G 7G 9
   4410169.86149   3425653.17046  22866675.467    22866685.601    22866674.999
     94371.08149     73526.44247  21530026.746    21530035.076    21530026.300
   1243325.49449    966820.75146  23057424.657    23057434.651    23057424.741
  -7865493.30049  -6108102.35746  22380710.419    22380721.631    22380711.082
   -228864.01649   -177047.08947  20527915.898    20527923.524    20527915.702
  -6924606.26649  -5369009.38647  22370117.071    22370126.295    22370117.251
 99  5 11 15 42 59.9990000  0  6G27G 2G26G 4G 7G 9
   4487178.53649   3485659.79146  22881329.850    22881339.990    22881329.371
     98495.82549     76740.48847  21530811.695    21530820.038    21530811.251
   1271672.06449    988908.86546  23062818.926    23062828.932    23062819.019
  -7992648.76749  -6207184.47146  22356513.458    22356524.692    22356514.140
   -225017.38449   -174049.74047  20528647.970    20528655.561    20528647.741
  -7033649.29849  -5453977.95147  22349366.814    22349376.023    22349367.008
 99  5 11 15 43 29.9990000  0  6G27G 2G26G 4G 7G 9
   4564381.76349   3545818.01546  22896021.242    22896031.397    22896020.769
    102729.39749     80039.34247  21531617.333    21531625.720    21531616.904
   1300262.63849   1011187.11446  23068259.660    23068269.656    23068259.731
  -8119649.04049  -6306145.66446  22332346.087    22332357.264    22332346.733
   -220926.24349   -170861.86547  20529426.518    20529434.122    20529426.301
  -7142449.66449  -5538757.43147  22328662.771    22328671.941    22328662.969
 99  5 11 15 43 59.9990000  0  6G27G 2G26G 4G 7G 9
   4641785.68049   3606132.60746  22910750.858    22910761.023    22910750.343
    107097.87149     83443.30047  21532448.652    21532457.053    21532448.212
   1329093.33449   1033652.46146  23073746.037    23073756.098    23073746.107
  -8246491.46149  -6404983.84646  22308208.773    22308219.889    22308209.390
   -216576.64249   -167472.59447  20530254.271    20530261.868    20530254.024
  -7250995.81849  -5623338.82747  22308007.085    22308016.243    22308007.286
 99  5 11 15 44 29.9990000  0  6G27G 2G26G 4G 7G 9
   4719378.05349   3666594.04246  22925516.287    22925526.481    22925515.799
    111609.26049     86958.63247  21533307.198    21533315.581    21533306.748
   1358144.54849   1056289.65046  23079274.365    23079284.499    23079274.435
  -8373179.15949  -6503701.48246  22284100.890    22284111.966    22284101.482
   -211964.14649   -163878.47047  20531132.060    20531139.638    20531131.793
  -7359295.47249  -5707728.13947  22287398.343    22287407.473    22287398.527
 99  5 11 15 44 59.9990000  0  6G27G 2G26G 4G 7G 9
   4797131.15549   3727180.72946  22940312.281    22940322.542    22940311.807
    116257.90349     90580.91247  21534191.835    21534200.232    21534191.401
   1387409.94849   1079093.73246  23084843.424    23084853.619    23084843.541
  -8499723.58049  -6602307.46346  22260020.299    22260031.325    22260020.862
   -207086.91649   -160078.05947  20532060.253    20532067.781    20532059.939
  -7467348.35049  -5791925.16447  22266836.557    22266845.675    22266836.737
 99  5 11 15 45 29.9990000  0  6G27G 2G26G 4G 7G 9
   4875037.50749   3787886.82545  22955137.442    22955147.761    22955137.017
    121072.47149     94332.47447  21535108.050    21535116.464    21535107.612
   1416914.95149   1102084.50746  23090458.178    23090468.356    23090458.263
  -8626101.15149  -6700783.43346  22235971.502    22235982.440    22235971.997
   -201928.77549   -156058.75547  20533041.879    20533049.380    20533041.532
  -7575136.65449  -5875916.03047  22246325.165    22246334.248    22246325.311
 99  5 11 15 45 59.9990000  0  6G27G 2G26G 4G 7G 9
   4953084.89949   3848702.82146  22969989.459    22969999.851    22969989.043
    126045.83449     98207.77847  21536054.515    21536062.917    21536054.069
   1446644.01449   1125249.88546  23096115.587    23096125.716    23096115.644
  -8752287.35249  -6799110.27846  22211959.077    22211969.973    22211959.546
   -196499.25749   -151827.98647  20534075.114    20534082.614    20534074.752
  -7682674.09449  -5959711.41647  22225861.465    22225870.539    22225861.614
 99  5 11 15 46 29.9990000  0  6G27G 2G26G 4G 7G 9
   5031288.70949   3909640.69546  22984871.319    22984881.686    22984870.831
    131159.41749    102192.34147  21537027.622    21537036.050    21537027.176
   1476614.85749   1148603.66846  23101818.899    23101829.088    23101819.008
  -8878268.20449  -6897277.11046  22187985.699    22187996.597    22187986.183
   -190811.86449   -147396.27647  20535157.419    20535164.922    20535157.048
  -7789961.39649  -6043311.88547  22205445.373    22205454.438    22205445.502
 99  5 11 15 46 59.9990000  0  6G27G 2G26G 4G 7G 9
   5109636.59849   3970690.83846  22999780.580    22999791.012    22999780.059
    136373.95549    106255.56847  21538019.944    21538028.384    21538019.499
   1506822.29149   1172141.82146  23107567.241    23107577.511    23107567.365
  -9004058.72249  -6995295.62546  22164048.561    22164059.432    22164049.020
   -184900.49749   -142790.04447  20536282.362    20536289.860    20536281.977
  -7897013.55749  -6126729.12647  22185074.010    22185083.078    22185074.143
 99  5 11 15 47 29.9990000  0  6G27G 2G26G 4G 7G 9
   5188134.09949   4031857.55746  23014718.302    23014728.743    23014717.757
    141685.30349    110394.23147  21539030.672    21539039.143    21539030.243
   1537260.46549   1195859.75046  23113359.567    23113369.797    23113359.657
  -9129662.58649  -7093168.69446  22140146.934    22140157.777    22140147.398
   -178782.21449   -138022.57947  20537446.628    20537454.165    20537446.255
  -8003844.87249  -6209974.28747  22164744.714    22164753.766    22164744.851
 99  5 11 15 47 59.9990000  0  6G27G 2G26G 4G 7G 9
   5266820.28549   4093171.29746  23029691.877    23029702.411    23029691.338
    147116.55449    114626.32147  21540064.211    21540072.718    21540063.803
   1567968.52549   1219787.99646  23119203.235    23119213.459    23119203.310
  -9255064.85349  -7190884.66146  22116283.616    22116294.484    22116284.098
   -172436.79049   -133078.11647  20538654.138    20538661.690    20538653.763
  -8110421.46549  -6293020.95547  22144463.885    22144472.935    22144464.012
 99  5 11 15 48 29.9990000  0  6G27G 2G26G 4G 7G 9
   5345686.53549   4154625.34346  23044699.668    23044710.348    23044699.204
    152678.53049    118960.27847  21541122.699    21541131.176    21541122.258
   1598936.51349   1243918.77746  23125096.339    23125106.580    23125096.407
  -9380288.05249  -7288461.09846  22092454.393    22092465.224    22092454.885
   -165870.93749   -127961.89447  20539903.625    20539911.166    20539903.242
  -8216731.19549  -6375859.68047  22124233.825    22124242.860    22124233.923
 99  5 11 15 48 59.9990000  0  6G27G 2G26G 4G 7G 9
   5424696.59649   4216191.46146  23059734.895    23059745.648    23059734.403
    158362.92749    123389.63147  21542204.454    21542212.930    21542204.000
   1630117.95249   1268215.90246  23131030.032    23131040.314    23131030.137
  -9505362.12749  -7385921.32946  22068653.543    22068664.339    22068654.023
   -159116.09349   -122698.40047  20541189.058    20541196.599    20541188.675
  -8322792.38849  -6458504.73147  22104051.026    22104060.088    22104051.139
 99  5 11 15 49 29.9990000  0  7G27G 2G26G 4G24G 7G 9
   5503846.03649   4277866.18746  23074796.679    23074807.460    23074796.148
    164189.24649    127929.57147  21543313.188    21543321.693    21543312.754
   1661503.52449   1292672.09146  23137002.642    23137012.900    23137002.719
  -9630288.79649  -7483266.69046  22044880.697    22044891.532    22044881.234
   -428889.31249   -310472.51845  24646645.288    24646659.593    24646645.762
   -152176.87649   -117291.24647  20542509.573    20542517.101    20542509.189
  -8428602.59249  -6540954.21047  22083915.943    22083925.048    22083916.094
 99  5 11 15 49 59.9990000  0  7G27G 2G26G 4G24G 7G 9
   5583127.92749   4339644.10645  23089883.617    23089894.491    23089883.075
    170163.27649    132584.60947  21544450.038    21544458.567    21544449.599
   1693083.43649   1317279.71546  23143012.190    23143022.448    23143012.258
  -9755051.80949  -7580484.52346  22021139.054    22021149.893    22021139.584
   -568457.21249   -419226.70245  24620086.563    24620101.260    24620087.158
   -145048.34449   -111736.57347  20543866.127    20543873.637    20543865.732
  -8534147.70249  -6623197.13647  22063831.344    22063840.467    22063831.516
 99  5 11 15 50 29.9990000  0  7G27G 2G26G 4G24G 7G 9
   5662539.86449   4401523.35945  23104995.289    23105006.300    23104994.756
    176296.28549    137363.52747  21545617.139    21545625.672    21545616.704
   1724845.81449   1342029.52046  23149056.456    23149066.745    23149056.519
  -9879619.43749  -7677550.10546  21997434.562    21997445.398    21997435.098
   -708183.53649   -528104.30145  24593497.602    24593512.883    24593498.276
   -137711.45549   -106019.54247  20545262.355    20545269.834    20545261.939
  -8639415.63549  -6705224.08047  22043799.575    22043808.613    22043799.707
 99  5 11 15 50 59.9990000  0  7G27G 2G26G 4G24G 7G 9
   5742085.02349   4463506.41845  23120132.328    23120143.385    23120131.779
    182584.13149    142263.08747  21546813.772    21546822.253    21546813.307
   1756807.14949   1366934.34946  23155138.614    23155148.924    23155138.651
 -10003975.48549  -7774450.81246  21973770.324    21973781.142    21973770.864
   -848078.08049   -637113.04445  24566876.625    24566891.834    24566877.154
   -130151.84649   -100128.96447  20546700.939    20546708.398    20546700.509
  -8744402.15249  -6787031.74247  22023821.359    22023830.315    22023821.438
 99  5 11 15 51 29.9990000  0  7G27G 2G26G 4G24G 7G 9
   5821753.41549   4525585.50545  23135292.764    23135303.964    23135292.271
    189036.48749    147290.85747  21548041.713    21548050.145    21548041.219
   1788968.34049   1391994.92446  23161258.738    23161269.134    23161258.793
 -10128110.74549  -7871179.48546  21950148.116    21950158.894    21950148.671
   -988120.87749   -746237.23445  24540227.330    24540242.346    24540227.761
   -122361.98549    -94058.96947  20548183.338    20548190.787    20548182.901
  -8849105.83349  -6868618.99647  22003896.904    22003905.845    22003897.000
 99  5 11 15 51 59.9990000  0  7G27G 2G26G 4G24G 7G 9
   5901530.89049   4587749.59845  23150474.103    23150485.295    23150473.538
    195654.12649    152447.40947  21549301.022    21549309.488    21549300.540
   1821327.57849   1417209.81446  23167416.531    23167427.009    23167416.618
 -10252016.26749  -7967729.14446  21926569.628    21926580.356    21926570.194
  -1128304.52149   -855471.19045  24513551.248    24513566.306    24513551.587
   -114339.42349    -87807.65147  20549710.038    20549717.473    20549709.595
  -8953528.35949  -6949987.17347  21984025.914    21984034.893    21984026.029
 99  5 11 15 52 29.9990000  0  7G27G 2G26G 4G24G 7G 9
   5981374.92849   4649965.56345  23165668.119    23165679.261    23165667.504
    202402.16649    157705.57447  21550585.148    21550593.647    21550584.679
   1853857.92049   1442558.03546  23173606.927    23173617.456    23173607.032
 -10375729.94349  -8064129.30746  21903027.645    21903038.308    21903028.205
  -1268657.78849   -964837.25545  24486842.850    24486857.907    24486843.185
   -106125.05049    -81406.86547  20551273.235    20551280.662    20551272.767
  -9057710.01849  -7031167.65847  21964200.787    21964209.762    21964200.913
 99  5 11 15 52 59.9990000  0  7G27G 2G26G 4G24G 7G 9
   6061322.62149   4712262.29645  23180881.839    23180892.964    23180881.199
    209317.75549    163094.29247  21551901.200    21551909.697    21551900.721
   1886601.93849   1468072.75646  23179838.009    23179848.558    23179838.098
 -10499228.29449  -8160361.68046  21879526.648    21879537.237    21879527.210
  -1409134.26549  -1074299.30945  24460111.048    24460126.144    24460111.333
    -97697.11049    -74839.67047  20552877.053    20552884.468    20552876.586
  -9161628.52849  -7112143.09647  21944425.780    21944434.711    21944425.855
 99  5 11 15 53 29.9990000  0  8G27G 2G26G 4G24G 7G 9G 5
   6141377.97749   4774642.93045  23196116.002    23196127.167    23196115.360
    216407.34949    168618.60647  21553250.374    21553258.853    21553249.883
   1919549.84549   1493746.35946  23186107.819    23186118.431    23186107.941
 -10622496.33549  -8256414.60546  21856069.470    21856080.015    21856070.037
  -1549712.51949  -1183840.60945  24433359.836    24433374.918    24433360.082
    -89048.63849    -68100.63247  20554522.816    20554530.224    20554522.363
  -9265283.33749  -7192913.05047  21924700.922    21924709.836    21924700.999
  -2814954.15759  -2180664.86155  24911318.018    24911328.955    24911317.621
 99  5 11 15 53 59.9990000  0  8G27G 2G26G 4G24G 7G 9G 5
   6221532.28049   4837100.66045  23211369.005    23211380.197    23211368.348
    223624.35549    174242.20047  21554623.769    21554632.256    21554623.289
   1952677.54049   1519560.05246  23192411.897    23192422.556    23192412.020
 -10745559.66249  -8352308.01146  21832651.247    21832661.779    21832651.815
  -1690424.68149  -1293486.21645  24406583.141    24406598.280    24406583.414
    -80197.09549    -61203.35547  20556207.215    20556214.630    20556206.782
  -9368689.94449  -7273489.60147  21905023.196    21905032.181    21905023.332
  -2929031.80149  -2269556.56445  24889609.854    24889620.714    24889609.316
 99  5 11 15 54 29.9990000  0  8G27G 2G26G 4G24G 7G 9G 5
   6301810.26049   4899654.75645  23226645.514    23226656.777    23226644.914
    230968.53149    179964.88347  21556021.335    21556029.866    21556020.878
   1985977.20949   1545507.75546  23198748.718    23198759.417    23198748.837
 -10868410.25449  -8448035.65046  21809273.461    21809284.006    21809274.044
  -1831255.92649  -1403224.63145  24379783.843    24379798.954    24379784.081
    -71139.12049    -54145.22547  20557930.922    20557938.328    20557930.484
  -9471835.30949  -7353862.58947  21885395.213    21885404.224    21885395.389
  -3043212.30249  -2358528.40145  24867881.936    24867892.986    24867881.448
 99  5 11 15 54 59.9990000  0  8G27G 2G26G 4G24G 7G 9G 5
   6382230.07249   4962319.37745  23241949.089    23241960.296    23241948.462
    238449.68349    185794.29747  21557444.978    21557453.543    21557444.526
   2019457.74249   1571596.39846  23205119.959    23205130.682    23205120.078
 -10991023.30349  -8543578.18746  21785940.865    21785951.428    21785941.476
  -1972185.99749  -1513040.00745  24352965.671    24352980.775    24352965.904
    -61860.16449    -46914.89947  20559696.705    20559704.100    20559696.254
  -9574692.19249  -7434010.77947  21865822.203    21865831.179    21865822.362
  -3157470.11949  -2447560.48745  24846139.374    24846150.463    24846138.922
 99  5 11 15 55 29.9990000  0  8G27G 2G26G 4G24G 7G 9G 5
   6462773.90549   5025080.63645  23257276.276    23257287.482    23257275.639
    246051.34949    191717.63247  21558891.604    21558900.157    21558891.129
   2053105.91049   1597815.64946  23211523.150    23211533.818    23211523.217
 -11113407.11949  -8638942.11446  21762651.910    21762662.492    21762652.520
  -2113229.79449  -1622944.03545  24326125.894    24326140.968    24326126.094
    -52378.79049    -39526.84947  20561500.987    20561508.393    20561500.532
  -9677253.07749  -7513928.33147  21846305.508    21846314.437    21846305.670
  -3271821.87849  -2536665.78945  24824379.049    24824390.130    24824378.649
 99  5 11 15 55 59.9990000  0  8G27G 2G26G 4G24G 7G 9G 5
   6543421.47049   5087922.72745  23272623.229    23272634.357    23272622.558
    253750.24849    197716.72547  21560356.742    21560365.263    21560356.234
   2086911.92549   1624157.89546  23217956.349    23217966.959    23217956.402
 -11235585.93149  -8734146.29346  21739401.980    21739412.549    21739402.613
  -2254409.09149  -1732953.66546  24299260.326    24299275.308    24299260.510
    -42735.22549    -32012.41447  20563336.129    20563343.546    20563335.668
  -9779523.73349  -7593619.72447  21826844.046    21826852.946    21826844.207
  -3386299.71049  -2625869.32445  24802594.684    24802605.850    24802594.243
 99  5 11 15 56 29.9990000  0  8G27G 2G26G 4G24G 7G 9G 5
   6624137.47049   5150818.14245  23287983.158    23287994.271    23287982.444
    261537.71049    203784.80747  21561838.741    21561847.221    21561838.208
   2120861.55049   1650612.04746  23224416.875    23224427.436    23224416.890
 -11357575.47249  -8829202.99946  21716188.113    21716198.624    21716188.732
  -2395735.36049  -1843077.83446  24272366.775    24272381.637    24272366.956
    -32961.01349    -24396.17647  20565196.083    20565203.564    20565195.634
  -9881516.52249  -7673094.59947  21807435.445    21807444.349    21807435.600
  -3500921.25849  -2715184.81845  24780783.006    24780794.146    24780782.548
 99  5 11 15 56 59.9990000  0  8G27G 2G26G 4G24G 7G 9G 5
   6704956.77049   5213794.03945  23303362.628    23303373.874    23303361.993
    269466.45149    209963.01047  21563347.559    21563356.079    21563347.049
   2155016.14049   1677225.90946  23230916.363    23230926.960    23230916.393
 -11479328.95649  -8924075.77846  21693019.170    21693029.619    21693019.777
  -2537158.98849  -1953277.88446  24245454.612    24245469.458    24245454.813
    -22995.24649    -16630.68347  20567092.477    20567100.001    20567092.066
  -9983173.19849  -7752307.57147  21788090.763    21788099.693    21788090.928
  -3615656.79149  -2804589.12745  24758949.525    24758960.786    24758949.031
 99  5 11 15 57 29.9990000  0  8G27G 2G26G 4G24G 7G 9G 5
   6785900.69049   5276867.05545  23318765.868    23318777.138    23318765.297
    277548.69549    216260.82947  21564885.582    21564894.123    21564885.082
   2189384.51649   1704006.36046  23237456.468    23237467.178    23237456.525
 -11600833.25949  -9018754.38646  21669897.598    21669908.022    21669898.218
  -2678662.66249  -2063540.31346  24218527.204    24218542.037    24218527.461
    -12818.58649     -8700.85047  20569029.074    20569036.578    20569028.666
 -10084469.80149  -7831239.95447  21768814.629    21768823.600    21768814.817
  -3730503.78549  -2894080.30845  24737094.931    24737106.097    24737094.405
 99  5 11 15 57 59.9990000  0  8G27G 2G26G 4G24G 7G 9G 5
   6866947.86349   5340020.52345  23334188.770    23334200.058    23334188.226
    285760.98949    222659.96847  21566448.389    21566456.915    21566447.864
   2223926.76149   1730922.29346  23244029.691    23244040.464    23244029.756
 -11722092.08549  -9113241.71746  21646822.778    21646833.132    21646823.373
  -2820269.96449  -2173883.52646  24191580.082    24191594.873    24191580.370
     -2438.30149      -612.35247  20571004.486    20571011.908    20571004.015
 -10185424.23949  -7909905.72747  21749603.656    21749612.626    21749603.818
  -3845478.03349  -2983670.63145  24715216.036    24715227.223    24715215.580
 99  5 11 15 58 29.9990000  0  8G27G 2G26G 4G24G 7G 9G 5
   6948096.19349   5403252.80845  23349630.964    23349642.220    23349630.376
    294115.25349    229169.74147  21568038.163    21568046.739    21568037.669
   2258627.84449   1757961.99846  23250633.045    23250643.943    23250633.199
 -11843088.33349  -9207524.44546  21623797.907    21623808.191    21623798.489
  -2961976.47649  -2284304.04945  24164614.098    24164628.883    24164614.412
      8169.46549      7653.40247  20573023.148    20573030.516    20573022.660
 -10286042.23949  -7988309.33647  21730456.704    21730465.671    21730456.850
  -3960573.10949  -3073355.11245  24693314.237    24693325.452    24693313.778
 99  5 11 15 58 59.9990000  0  8G27G 2G26G 4G24G 7G 9G 5
   7029339.50549   5466559.09545  23365091.206    23365102.471    23365090.646
    302597.78949    235779.47547  21569652.366    21569660.966    21569651.870
   2293465.72049   1785108.29046  23257262.501    23257273.460    23257262.677
 -11963814.64449  -9301596.83447  21600824.428    21600834.642    21600824.988
  -3103776.65049  -2394797.56445  24137630.334    24137645.009    24137630.615
     19002.77149     16094.90347  20575084.685    20575092.057    20575084.199
 -10386339.60949  -8066463.10047  21711370.753    21711379.694    21711370.892
  -4075802.37849  -3163144.19445  24671386.783    24671398.020    24671386.492
 99  5 11 15 59 29.9990000  0  8G27G 2G26G 4G24G 7G 9G 5
   7110677.48949   5529939.17045  23380569.442    23380580.722    23380568.912
    311214.83249    242494.01247  21571292.228    21571300.804    21571291.705
   2328431.02649   1812353.87946  23263916.273    23263927.254    23263916.437
 -12084253.36649  -9395445.13747  21577905.705    21577915.842    21577906.222
  -3245656.16949  -2505352.93245  24110631.427    24110646.055    24110631.748
     30049.58649     24702.77447  20577186.794    20577194.256    20577186.353
 -10486318.92149  -8144369.03847  21692345.330    21692354.239    21692345.454
  -4191141.66449  -3253018.99745  24649438.441    24649449.708    24649438.138
 99  5 11 15 59 59.9990000  0  8G27G 2G26G 4G24G 7G 9G 5
   7192092.73549   5593379.41845  23396062.358    23396073.701    23396061.869
    319982.24249    249325.71847  21572960.653    21572969.240    21572960.137
   2363522.60749   1839697.87446  23270594.118    23270605.081    23270594.235
 -12204405.12949  -9489069.83447  21555041.590    21555051.662    21555042.085
  -3387614.44649  -2615969.69345  24083617.586    24083632.159    24083617.918
     41305.24349     33473.37847  20579328.663    20579336.197    20579328.239
 -10586008.27049  -8222049.01847  21673375.131    21673383.965    21673375.213
  -4306577.69249  -3342969.15245  24627471.513    24627482.930    24627471.373
 99  5 11 16  0 29.9980000  0  8G27G 2G26G 4G24G 7G 9G 5
   7273567.75349   5656866.25645  23411566.667    23411578.019    23411566.170
    328901.41549    256275.67547  21574657.948    21574666.557    21574657.436
   2398734.95249   1867135.97446  23277294.904    23277305.867    23277294.992
 -12324277.79349  -9582477.04547  21532230.553    21532240.603    21532231.036
  -3529634.63849  -2726634.72045  24056591.935    24056606.493    24056592.268
     52744.78249     42387.26247  20581505.531    20581513.108    20581505.131
 -10685426.57849  -8299517.80247  21654456.456    21654465.271    21654456.553
  -4422117.08449  -3432999.84945  24605485.200    24605496.527    24605484.938
 99  5 11 16  0 59.9980000  0  8G27G 2G26G 4G24G 7G 9G 5
   7355114.97349   5720409.32445  23427084.731    23427096.063    23427084.245
    337983.90749    263352.89347  21576386.325    21576394.946    21576385.820
   2434086.40849   1894682.46646  23284022.179    23284033.100    23284022.249
 -12443886.58149  -9675678.63847  21509469.705    21509479.744    21509470.196
  -3671711.33249  -2837343.78045  24029555.512    24029570.048    24029555.835
     64357.01049     51435.71447  20583715.334    20583722.874    20583714.907
 -10784571.59049  -8376773.62347  21635589.778    21635598.606    21635589.854
  -4537748.93949  -3523102.60345  24583481.275    24583492.483    24583480.969
 99  5 11 16  1 29.9980000  0  8G27G 2G26G 4G24G 7G 9G 5
   7436757.57349   5784026.73045  23442620.876    23442632.320    23442620.439
    347274.33849    270592.13247  21578154.264    21578162.911    21578153.770
   2469600.79949   1922355.92646  23290780.482    23290791.348    23290780.522
 -12563213.07949  -9768660.26847  21486762.604    21486772.600    21486763.078
  -3813841.36949  -2948094.40545  24002508.947    24002523.511    24002509.288
     76161.72249     60634.15047  20585961.783    20585969.254    20585961.319
 -10883418.79049  -8453797.38147  21616779.776    21616788.597    21616779.855
  -4653440.88949  -3613252.19045  24561465.738    24561477.074    24561465.502
 99  5 11 16  1 59.9980000  0  8G27G 2G26G 4G24G 7G 9G 5
   7518488.95049   5847713.28945  23458173.944    23458185.490    23458173.517
    356762.84449    277985.72447  21579959.924    21579968.591    21579959.418
   2505270.07049   1950150.07346  23297568.237    23297579.062    23297568.232
 -12682273.04449  -9861434.20747  21464106.186    21464116.192    21464106.666
  -3956047.08249  -3058904.00645  23975447.976    23975462.547    23975448.403
     88154.87649     69979.42247  20588244.056    20588251.504    20588243.581
 -10981970.61149  -8530590.97747  21598025.966    21598034.771    21598026.046
  -4769216.12449  -3703466.66045  24539434.384    24539445.884    24539434.204
 99  5 11 16  2 29.9980000  0  8G27G 2G26G 4G24G 7G 9G 5
   7600301.75349   5911463.29845  23473742.561    23473754.115    23473742.108
    366433.08549    285520.92347  21581800.181    21581808.843    21581799.662
   2541088.60049   1978060.52446  23304384.380    23304395.200    23304384.375
 -12801081.11149  -9954011.85647  21441497.697    21441507.723    21441498.199
  -4098339.53449  -3169781.16045  23948370.448    23948385.125    23948370.886
    100318.58249     79457.59247  20590558.763    20590566.211    20590558.292
 -11080213.52449  -8607143.86847  21579330.909    21579339.743    21579331.017
  -4885083.30349  -3793752.77545  24517385.608    24517397.094    24517385.405
 99  5 11 16  2 59.9980000  0  8G27G 2G26G 4G24G 7G 9G 5
   7682213.94349   5975290.75945  23489330.028    23489341.621    23489329.661
    376309.65249    293216.88947  21583679.691    21583688.340    21583679.165
   2577095.61149   2006117.84746  23311236.340    23311247.200    23311236.347
 -12919622.99449 -10046382.09947  21418939.898    21418949.883    21418940.388
  -4240717.30049  -3280724.78445  23921276.732    23921291.480    23921277.186
    112683.51049     89092.55247  20592911.753    20592919.213    20592911.285
 -11178106.52249  -8683424.09847  21560702.426    21560711.302    21560702.565
  -5001021.43749  -3884094.15745  24495323.350    24495334.812    24495323.125
 99  5 11 16  3 29.9980000  0  8G27G 2G26G 4G24G 7G 9G 5
   7764229.06449   6039198.42445  23504937.159    23504948.802    23504936.735
    386384.67949    301067.50147  21585596.953    21585605.594    21585596.429
   2613294.83149   2034324.94346  23318124.864    23318135.762    23318124.915
 -13037878.54249 -10138529.21447  21396436.583    21396446.529    21396437.066
  -4383174.57549  -3391730.34445  23894167.969    23894182.685    23894168.407
    125262.22749     98894.10647  20595305.431    20595312.912    20595304.968
 -11275625.19249  -8759412.64447  21542145.218    21542154.100    21542145.352
  -5117031.81449  -3974491.85045  24473247.290    24473258.790    24473247.111
 99  5 11 16  3 59.9980000  0  8G27G 2G26G 4G24G 7G 9G 5
   7846319.21649   6103164.53445  23520558.497    23520570.249    23520558.100
    396608.78349    309034.27847  21587542.574    21587551.227    21587542.058
   2649662.09249   2062662.98446  23325045.396    23325056.322    23325045.424
 -13155866.97349 -10230468.18547  21373984.077    21373993.995    21373984.562
  -4525716.42049  -3502801.80045  23867043.111    23867057.780    23867043.495
    138025.61549    108839.55947  20597734.301    20597741.755    20597733.809
 -11372779.27949  -8835117.10147  21523657.372    21523666.264    21523657.531
  -5233142.35249  -4064967.57945  24451152.309    24451163.770    24451152.105
 99  5 11 16  4 29.9980000  0  8G27G 2G26G 4G24G 7G 9G 5
   7928496.84249   6167198.83145  23536196.549    23536208.302    23536196.150
    406990.73549    317124.05647  21589518.215    21589526.894    21589517.731
   2686209.81649   2091141.64146  23332000.216    23332011.211    23332000.295
 -13273568.41149 -10322183.51647  21351586.125    21351596.077    21351586.658
  -4668325.99449  -3613926.03245  23839905.394    23839920.044    23839905.706
    150986.93649    118939.24447  20600200.837    20600208.261    20600200.320
 -11469553.17749  -8910525.31547  21505241.894    21505250.763    21505242.039
  -5349342.41149  -4155513.07545  24429040.345    24429051.710    24429040.033
 99  5 11 16  4 59.9980000  0  8G27G 2G26G 4G24G 7G 9G 5
   8010742.53849   6231286.13345  23551847.473    23551859.315    23551847.100
    417496.20949    325310.08347  21591517.423    21591526.080    21591516.907
   2722890.64549   2119724.01646  23338980.381    23338991.435    23338980.483
 -13390996.43249 -10413685.79647  21329240.234    21329250.196    21329240.768
  -4811025.47049  -3725120.30145  23812750.504    23812765.103    23812750.862
    164126.52749    129177.83647  20602701.293    20602708.693    20602700.769
 -11565970.63549  -8985655.78847  21486894.304    21486903.103    21486894.421
  -5465671.65849  -4246159.25145  24406903.812    24406915.043    24406903.326
 99  5 11 16  5 29.9980000  0  8G27G 2G26G 4G24G 7G 9G 5
   8093115.70249   6295472.78445  23567522.760    23567534.731    23567522.459
    428167.23849    333625.11347  21593548.145    21593556.772    21593547.594
   2759721.75449   2148423.50646  23345989.240    23346000.279    23345989.314
 -13508095.22549 -10504931.52347  21306957.012    21306966.963    21306957.547
  -4953749.80449  -3836333.94345  23785590.920    23785605.444    23785591.226
    177486.88949    139588.46747  20605243.693    20605251.117    20605243.200
 -11661996.88249  -9060481.41547  21468621.129    21468629.874    21468621.237
  -5582082.99749  -4336869.37445  24384751.434    24384762.719    24384750.913
 99  5 11 16  5 59.9980000  0  8G27G 2G26G 4G24G 7G 9G 5
   8175602.53949   6359748.01545  23583219.564    23583231.571    23583219.247
    439009.45649    342073.53447  21595611.393    21595620.039    21595610.859
   2796681.28249   2177223.03446  23353022.496    23353033.526    23353022.566
 -13624867.77449 -10595923.04547  21284735.868    21284745.814    21284736.408
  -5096501.79349  -3947569.09445  23758426.064    23758440.493    23758426.378
    191050.51349    150157.48347  20607824.780    20607832.224    20607824.289
 -11757657.68049  -9135022.27947  21450417.473    21450426.207    21450417.570
  -5698582.28549  -4427648.04045  24362582.476    24362593.719    24362581.887
 99  5 11 16  6 29.9980000  0  8G27G 2G26G 4G24G 7G 9G 5
   8258214.43149   6424120.66445  23598940.177    23598952.277    23598939.858
    450061.46549    350685.42547  21597714.502    21597723.221    21597714.020
   2833786.24849   2206135.89946  23360083.356    23360094.488    23360083.459
 -13741284.56349 -10686637.35847  21262582.427    21262592.374    21262582.994
  -5239248.74249  -4058800.36145  23731262.076    23731276.584    23731262.412
    204830.92749    160895.41947  20610447.145    20610454.591    20610446.645
 -11852937.95049  -9209266.62847  21432286.244    21432294.950    21432286.333
  -5815141.19849  -4518473.14445  24340401.875    24340413.368    24340401.400
 99  5 11 16  6 59.9980000  0  8G27G 2G26G 4G24G 7G 9G 5
   8340907.93049   6488556.88645  23614676.350    23614688.712    23614676.048
    461291.19649    359435.79747  21599851.453    21599860.229    21599850.992
   2870995.73349   2235130.21346  23367164.176    23367175.320    23367164.274
 -13857376.95349 -10777098.88547  21240490.735    21240500.652    21240491.294
  -5382003.01749  -4170037.31345  23704096.729    23704111.229    23704097.007
    218778.19949    171763.38247  20613101.292    20613108.729    20613100.783
 -11947873.54249  -9283242.39047  21414220.573    21414229.285    21414220.672
  -5931775.66949  -4609357.11545  24318206.882    24318218.575    24318206.471
 99  5 11 16  7 29.9980000  0  9G27G 2G26G 4G24G 7G 8G 9G 5
   8423664.13749   6553041.95845  23630424.493    23630436.852    23630424.195
    472699.98649    368325.69447  21602022.553    21602031.288    21602022.058
   2908322.32049   2264215.77346  23374267.314    23374278.470    23374267.387
 -13973135.06149 -10867299.93647  21218462.644    21218472.563    21218463.208
  -5524760.95049  -4281277.13345  23676930.763    23676945.178    23676930.982
    232884.28949    182755.09747  20615785.648    20615793.075    20615785.126
   -667239.60159   -499700.09255  24384737.380    24384748.792    24384737.087
 -12042476.82849  -9356959.21547  21396218.107    21396226.829    21396218.226
  -6048475.16349  -4700291.76345  24295999.548    24296011.461    24295999.259
 99  5 11 16  7 59.9980000  0  9G27G 2G26G 4G24G 7G 8G 9G 5
   8506462.22949   6617559.68545  23646180.559    23646193.099    23646180.228
    484281.99149    377350.56847  21604226.631    21604235.353    21604226.100
   2945772.58649   2293397.70346  23381393.992    23381405.157    23381394.035
 -14088553.27849 -10957236.13747  21196499.222    21196509.142    21196499.793
  -5667534.37549  -4392529.03645  23649761.804    23649776.198    23649762.069
    247149.25949    193870.61747  20618500.216    20618507.668    20618499.701
   -810948.86449   -611681.29045  24357390.547    24357401.743    24357390.296
 -12136734.13449  -9430406.44247  21378281.526    21378290.241    21378281.637
  -6165236.50449  -4791274.64845  24273780.484    24273792.530    24273780.250
 99  5 11 16  8 29.9980000  0  9G27G 2G26G 4G24G 7G 8G 9G 5
   8589314.10449   6682119.32545  23661946.934    23661959.579    23661946.578
    496046.12849    386517.35947  21606465.355    21606474.067    21606464.818
   2983366.27149   2322691.39246  23388547.930    23388559.097    23388547.935
 -14203627.73949 -11046904.47147  21174601.221    21174611.139    21174601.796
  -5810311.98249  -4503784.17545  23622592.099    23622606.449    23622592.321
    261598.49249    205129.72047  20621249.829    20621257.320    20621249.323
   -954613.56149   -723627.86345  24330052.136    24330063.362    24330051.878
 -12230615.65549  -9503560.85147  21360416.475    21360425.161    21360416.575
  -6282052.75649  -4882300.29945  24251551.241    24251563.160    24251550.871
 99  5 11 16  8 59.9980000  0  9G27G 2G26G 4G24G 7G 8G 9G 5
   8672216.03849   6746717.95845  23677722.860    23677735.539    23677722.542
    507984.41649    395819.84947  21608737.210    21608745.927    21608736.669
   3021103.97049   2352097.28246  23395729.187    23395740.378    23395729.236
 -14318365.20549 -11136310.22147  21152767.379    21152777.265    21152767.939
  -5953105.95049  -4615052.06045  23595419.261    23595433.538    23595419.511
    276244.11749    216541.85247  20624036.801    20624044.343    20624036.326
  -1098213.80149   -835524.20545  24302726.026    24302737.135    24302725.801
 -12324118.85149  -9576420.46547  21342623.431    21342632.060    21342623.513
  -6398932.37449  -4973375.37245  24229309.896    24229321.779    24229309.386
 99  5 11 16  9 29.9980000  0  9G27G 2G26G 4G24G 7G 8G 9G 5
   8755166.72349   6811354.59645  23693508.132    23693520.804    23693507.654
    520095.68049    405257.12747  21611041.972    21611050.681    21611041.427
   3058978.40249   2381609.72746  23402936.517    23402947.703    23402936.560
 -14432768.60149 -11225455.64747  21130997.082    21131006.975    21130997.657
  -6095938.15749  -4726349.74745  23568239.169    23568253.367    23568239.334
    291095.88049    228114.61347  20626863.040    20626870.583    20626862.549
  -1241734.36449   -947358.48645  24275415.144    24275426.127    24275414.761
 -12417238.64449  -9648981.31347  21324903.371    21324911.920    21324903.419
  -6515901.56949  -5064520.23345  24207051.351    24207063.323    24207050.958
 99  5 11 16  9 59.9980000  0  9G27G 2G26G 4G24G 7G 8G 9G 5
   8838165.41049   6876028.63945  23709302.595    23709315.169    23709301.940
    532383.67449    414832.09447  21613380.386    21613389.080    21613379.811
   3096970.35349   2411213.74046  23410166.216    23410177.382    23410166.267
 -14546848.17549 -11314348.76447  21109288.424    21109298.291    21109288.986
  -6238804.77249  -4837674.26145  23541052.482    23541066.658    23541052.619
    306143.26449    239839.79647  20629726.500    20629734.067    20629726.006
  -1385189.19049  -1059141.49445  24248116.647    24248127.695    24248116.209
 -12509965.09249  -9721235.66747  21307258.117    21307266.621    21307258.166
  -6632977.88249  -5155748.52045  24184772.584    24184784.375    24184772.117
 99  5 11 16 10 29.9980000  0  9G27G 2G26G 4G24G 7G 8G 9G 5
   8921221.65049   6940747.54445  23725107.959    23725120.522    23725107.243
    544862.06049    424555.42947  21615755.035    21615763.700    21615754.438
   3135088.32849   2440915.94246  23417419.932    23417431.032    23417419.994
 -14660594.80349 -11402982.43647  21087643.130    21087652.954    21087643.681
  -6381674.66949  -4949001.32745  23513865.157    23513879.319    23513865.326
    321386.17849    251717.34547  20632627.209    20632634.749    20632626.689
  -1528581.24149  -1170875.66045  24220830.159    24220841.058    24220829.628
 -12602291.00249  -9793177.90847  21289689.071    21289697.546    21289689.119
  -6750152.40549  -5247053.30245  24162474.982    24162486.772    24162474.586
 99  5 11 16 10 59.9980000  0  9G27G 2G26G 4G24G 7G 8G 9G 5
   9004333.76449   7005509.93345  23740923.965    23740936.548    23740923.173
    557521.33849    434419.72047  21618164.118    21618172.750    21618163.513
   3173321.97549   2470708.28746  23424695.651    23424706.733    23424695.689
 -14774002.95049 -11491352.36547  21066062.235    21066072.033    21066062.772
  -6524542.15049  -5060326.53245  23486678.310    23486692.400    23486678.453
    336793.31049    263722.84947  20635559.172    20635566.671    20635558.628
  -1671917.28349  -1282566.12045  24193554.256    24193565.160    24193553.713
 -12694230.15749  -9864818.78547  21272193.620    21272202.060    21272193.668
  -6867434.58149  -5338442.02545  24140156.997    24140168.712    24140156.525
 99  5 11 16 11 29.9980000  0  9G27G 2G26G 4G24G 7G 8G 9G 5
   9087493.68449   7070309.65845  23756749.118    23756761.578    23756748.166
    570349.07049    444415.27747  21620605.238    21620613.869    21620604.635
   3211641.00849   2500567.16746  23431987.602    23431998.695    23431987.639
 -14887073.01549 -11579458.83947  21044545.638    21044555.471    21044546.188
  -6667416.40749  -5171657.03845  23459490.124    23459504.242    23459490.368
    352325.09249    275825.48447  20638514.861    20638522.306    20638514.285
  -1815218.95849  -1394229.83545  24166284.961    24166295.770    24166284.386
 -12785804.52149  -9936175.40247  21254767.559    21254776.014    21254767.624
  -6984844.09849  -5429929.98845  24117814.766    24117826.404    24117814.277
 99  5 11 16 11 59.9980000  0  9G27G 2G26G 4G24G 7G 8G 9G 5
   9170688.50249   7135136.55445  23772580.923    23772593.273    23772579.838
    583328.10749    454528.73847  21623075.125    21623083.791    21623074.517
   3250028.42049   2530479.33146  23439292.565    23439303.656    23439292.593
 -14999818.48849 -11667312.38047  21023090.866    21023100.675    21023091.401
  -6810286.87749  -5282984.58045  23432302.684    23432316.803    23432302.978
    367963.55449    288011.24947  20641490.846    20641498.244    20641490.255
  -1958499.28449  -1505876.86645  24139019.636    24139030.460    24139019.068
 -12877027.97249 -10007258.57447  21237408.292    21237416.751    21237408.357
  -7102377.93149  -5521514.77345  24095448.838    24095460.367    24095448.383
 99  5 11 16 12 29.9980000  0  9G27G 2G26G 4G24G 7G 8G 9G 5
   9253951.55349   7200016.61645  23788425.609    23788437.971    23788424.478
    596486.67949    464782.08747  21625579.144    21625587.875    21625578.562
   3288520.34249   2560472.93346  23446617.406    23446628.522    23446617.449
 -15112209.99149 -11754890.11947  21001703.457    21001713.238    21001703.970
  -6953120.90849  -5394283.75545  23405122.169    23405136.182    23405122.413
    383741.05349    300305.35547  20644493.225    20644500.638    20644492.638
  -2101711.99349  -1617471.19545  24111767.295    24111778.008    24111766.647
 -12967873.20149 -10078047.03447  21220120.998    21220129.468    21220121.065
  -7219991.83649  -5613161.99145  24073067.813    24073079.030    24073067.256
 99  5 11 16 12 59.9980000  0  9G27G 2G26G 4G24G 7G 8G 9G 5
   9337259.02649   7264931.27745  23804278.691    23804291.121    23804277.601
    609796.53449    475153.31747  21628111.994    21628120.740    21628111.411
   3327079.72149   2590519.08946  23453955.108    23453966.230    23453955.143
 -15224267.93949 -11842207.93947  20980379.511    20980389.263    20980380.006
  -7095966.12049  -5505591.61945  23377939.614    23377953.479    23377939.760
    399640.27349    312694.30847  20647518.785    20647526.205    20647518.196
  -2244859.26149  -1729014.55745  24084527.296    24084538.042    24084526.632
 -13058367.71649 -10148562.20747  21202900.485    21202908.927    21202900.526
  -7337715.76949  -5704894.91645  24050665.664    24050676.887    24050665.178
 99  5 11 16 13 29.9980000  0  9G27G 2G26G 4G24G 7G 8G 9G 5
   9420601.96449   7329873.56945  23820138.460    23820151.023    23820137.450
    623269.11549    485651.33747  21630675.846    21630684.563    21630675.245
   3365702.75249   2620614.85146  23461304.908    23461316.047    23461304.941
 -15335988.23549 -11929262.66347  20959119.815    20959129.530    20959120.311
  -7238830.33049  -5616914.28845  23350753.436    23350767.193    23350753.622
    415700.51549    325208.73047  20650574.953    20650582.413    20650574.394
  -2387933.00549  -1840500.61545  24057301.221    24057312.077    24057300.672
 -13148494.03949 -10218790.48147  21185750.044    21185758.453    21185750.059
  -7455525.38249  -5796694.61845  24028247.280    24028258.481    24028246.838
 99  5 11 16 13 59.9980000  0  9G27G 2G26G 4G24G 7G 8G 9G 5
   9503951.60549   7394821.14945  23835999.544    23836012.140    23835998.586
    636905.04149    496276.64447  21633270.784    21633279.473    21633270.151
   3404385.39249   2650757.05246  23468666.076    23468677.247    23468666.094
 -15447395.92949 -12016073.79947  20937919.637    20937929.294    20937920.096
  -7381727.39149  -5728262.55045  23323560.978    23323574.651    23323561.206
    431930.07249    337855.08247  20653663.409    20653670.847    20653662.822
  -2530952.23949  -1951944.16145  24030085.521    24030096.519    24030085.022
 -13238250.89849 -10288730.85847  21168669.877    21168678.259    21168669.902
  -7573414.68249  -5888556.41745  24005813.673    24005824.826    24005813.256
 99  5 11 16 14 29.9980000  0  9G27G 2G26G 4G24G 7G 8G 9G 5
   9587320.48649   7459783.67845  23851864.345    23851877.011    23851863.387
    650729.04049    507048.50147  21635901.463    21635910.187    21635900.842
   3443157.88949   2680969.27846  23476044.339    23476055.576    23476044.334
 -15558459.02049 -12102616.41547  20916785.072    20916794.651    20916785.498
  -7524662.53349  -5839640.47845  23296361.326    23296374.902    23296361.488
    448348.33649    350648.47847  20656787.793    20656795.216    20656787.169
  -2673906.13249  -2063336.79345  24002882.331    24002893.387    24002881.844
 -13327613.08149 -10358363.70347  21151664.871    21151673.179    21151664.861
  -7691366.18649  -5980466.67845  23983368.303    23983379.396    23983367.882
 99  5 11 16 14 59.9980000  0  9G27G 2G26G 4G24G 7G 8G 9G 5
   9670717.24849   7524767.94045  23867734.399    23867747.181    23867733.439
    664760.33849    517981.89147  21638571.604    21638580.358    21638570.967
   3482025.13449   2711255.33346  23483440.610    23483451.913    23483440.600
 -15669150.31349 -12188869.32247  20895721.212    20895730.748    20895721.626
  -7667630.37349  -5951043.85445  23269155.389    23269168.897    23269155.605
    464974.29149    363603.70947  20659951.687    20659959.094    20659951.053
  -2816784.29749  -2174670.44545  23975693.548    23975704.591    23975693.009
 -13416565.77449 -10427677.45847  21134737.741    21134746.035    21134737.721
  -7809365.73549  -6072414.36545  23960913.772    23960924.856    23960913.339
 99  5 11 16 15 29.9980000  0  9G27G 2G26G 4G24G 7G 8G 9G 5
   9754111.57449   7589750.29845  23883604.023    23883616.831    23883603.057
    678967.18649    529052.08047  21641275.160    21641283.948    21641274.499
   3520956.24549   2741591.15846  23490849.073    23490860.403    23490849.045
 -15779503.62649 -12274858.86747  20874721.668    20874731.159    20874722.064
  -7810646.42449  -6062484.78545  23241940.283    23241953.767    23241940.471
    481753.41649    376678.29447  20663144.711    20663152.117    20663144.082
  -2959639.35249  -2285986.10045  23948509.041    23948520.211    23948508.583
 -13505142.19949 -10496698.02147  21117882.138    21117890.483    21117882.154
  -7927438.45249  -6164419.06745  23938445.253    23938456.360    23938444.869
 99  5 11 16 15 59.9980000  0  9G27G 2G26G 4G24G 7G 8G 9G 5
   9837531.82649   7654752.84245  23899478.540    23899491.415    23899477.608
    693356.21349    540264.20647  21644013.364    21644022.177    21644012.719
   3559977.78149   2771997.43746  23498274.784    23498286.068    23498274.709
 -15889482.58349 -12360556.71647  20853793.338    20853802.811    20853793.727
  -7953681.95949  -6173940.90745  23214721.380    23214734.947    23214721.632
    498677.65849    389865.95147  20666365.320    20666372.744    20666364.701
  -3102459.61349  -2397274.61545  23921331.358    23921342.415    23921330.817
 -13593325.46149 -10565412.22647  21101101.355    21101109.715    21101101.397
  -8045583.74649  -6256480.34545  23915963.022    23915974.063    23915962.567
 99  5 11 16 16 29.9980000  0  9G27G 2G26G 4G24G 7G 8G 9G 5
   9920985.09149   7719781.13745  23915359.342    23915372.239    23915358.458
    707903.57149    551599.70847  21646781.726    21646790.552    21646781.068
   3599081.16149   2802467.48146  23505716.012    23505727.286    23505715.938
 -15999079.60249 -12445956.94747  20832937.688    20832947.155    20832938.090
  -8096725.23149  -6285403.05045  23187501.070    23187514.616    23187501.309
    515732.54249    403155.40347  20669610.815    20669618.239    20669610.192
  -3245225.46749  -2508520.74345  23894163.830    23894175.000    23894163.361
 -13681120.38549 -10633823.83847  21084394.544    21084402.869    21084394.577
  -8163814.25349  -6348608.01745  23893464.480    23893475.562    23893464.085
 99  5 11 16 16 59.9980000  0  9G27G 2G26G 4G24G 7G 8G 9G 5
  10004460.55449   7784826.68245  23931244.438    23931257.342    23931243.495
    722597.18049    563049.17647  21649577.923    21649586.747    21649577.242
   3638247.88149   2832986.89646  23513169.300    23513180.550    23513169.224
 -16108309.99749 -12531071.49747  20812151.811    20812161.258    20812152.207
  -8239764.34449  -6396861.93145  23160281.547    23160295.064    23160281.780
    532902.78649    416534.75547  20672878.257    20672885.692    20672877.636
  -3387931.26249  -2619720.09445  23867007.887    23867018.979    23867007.387
 -13768533.92449 -10701938.25747  21067760.295    21067768.596    21067760.323
  -8282142.56449  -6440811.88945  23870947.400    23870958.399    23870947.006
 99  5 11 16 17 29.9980000  0  9G27G 2G26G 4G24G 7G 8G 9G 5
  10087974.63949   7849902.34045  23947136.796    23947149.818    23947135.904
    737457.03849    574628.17747  21652405.754    21652414.584    21652405.066
   3677510.32949   2863580.89346  23520640.810    23520652.048    23520640.738
 -16217164.25549 -12615892.96847  20791437.499    20791446.912    20791437.921
  -8382767.56349  -6508292.85345  23133068.884    23133082.327    23133069.127
    550206.63149    430018.20947  20676171.094    20676178.555    20676170.489
  -3530549.98849  -2730851.59245  23839868.440    23839879.609    23839867.959
 -13855530.65149 -10769727.90347  21051205.331    21051213.636    21051205.368
  -8400546.94149  -6533075.03145  23848415.713    23848426.777    23848415.356
 99  5 11 16 17 59.9980000  0  9G27G 2G26G 4G24G 7G 8G 9G 5
  10171496.47849   7914984.01745  23963030.645    23963043.681    23963029.810
    752473.62249    586329.32147  21655263.400    21655272.233    21655262.703
   3716855.20449   2894239.13146  23528127.968    23528139.217    23528127.912
 -16325662.29749 -12700436.86247  20770790.976    20770800.359    20770791.407
  -8525753.67649  -6619710.43445  23105859.475    23105872.789    23105859.681
    567646.14249    443607.38247  20679489.768    20679497.240    20679489.173
  -3673076.72149  -2841911.41245  23812746.590    23812757.732    23812746.100
 -13942118.15349 -10837198.65547  21034728.310    21034736.569    21034728.327
  -8519050.77049  -6625415.68745  23825865.142    23825876.256    23825864.806
 99  5 11 16 18 29.9980000  0  9G27G 2G26G 4G24G 7G 8G 9G 5
  10255025.72349   7980071.45645  23978925.892    23978938.981    23978925.131
    767675.31149    598174.69447  21658156.288    21658165.115    21658155.578
   3756285.49449   2924963.91746  23535631.408    23535642.666    23535631.342
 -16433799.57649 -12784699.65047  20750213.101    20750222.444    20750213.517
  -8668702.45849  -6731098.90545  23078657.131    23078670.394    23078657.311
    585240.47349    457317.19147  20682837.950    20682845.406    20682837.337
  -3815479.73549  -2952874.82445  23785648.135    23785659.347    23785647.693
 -14028280.25749 -10904337.94947  21018332.240    21018340.466    21018332.242
  -8637622.64449  -6717809.34945  23803301.607    23803312.808    23803301.357
 99  5 11 16 18 59.9980000  0  9G27G 2G26G 4G24G 7G 8G 9G 5
  10338502.44249   8045117.95845  23994811.219    23994824.389    23994810.464
    783030.69149    610139.83047  21661078.431    21661087.251    21661077.707
   3795739.53849   2955707.21046  23543139.329    23543150.650    23543139.270
 -16541624.29749 -12868718.88047  20729694.679    20729704.041    20729695.097
  -8811668.90349  -6842501.14445  23051451.373    23051464.623    23051451.579
    602939.34249    471108.46047  20686206.059    20686213.469    20686205.397
  -3957829.84949  -3063797.01145  23758559.929    23758571.066    23758559.393
 -14114070.68449 -10971187.61047  21002006.851    21002015.062    21002006.846
  -8756309.28849  -6810292.44845  23780716.330    23780727.453    23780716.001
 99  5 11 16 19 29.9980000  0  9G27G 2G26G 4G24G 7G 8G 9G 5
  10421955.39549   8110145.94845  24010692.068    24010705.164    24010691.297
    798578.23449    622254.70047  21664037.076    21664045.931    21664036.382
   3835232.36649   2986480.71946  23550654.667    23550666.030    23550654.617
 -16649091.12449 -12952459.22847  20709244.345    20709253.757    20709244.792
  -8954608.24149  -6953882.26445  23024250.686    23024263.990    23024250.976
    620780.35549    485010.49047  20689601.206    20689608.574    20689600.510
  -4100107.93849  -3174663.05645  23731485.341    23731496.456    23731484.840
 -14199467.22049 -11037730.34247  20985756.437    20985764.620    20985756.417
  -8875064.77049  -6902829.17145  23758117.936    23758129.068    23758117.630
 99  5 11 16 19 59.9980000  0  9G27G 2G26G 4G24G 7G 8G 9G 5
  10505385.10249   8175155.79345  24026568.503    24026581.580    24026567.659
    814310.67349    634513.65047  21667030.934    21667039.817    21667030.242
   3874735.74749   3017262.46646  23558172.037    23558183.406    23558171.964
 -16756181.02249 -13035905.87547  20688865.849    20688875.202    20688866.264
  -9097505.60049  -7065230.66045  22997057.974    22997071.343    22997058.364
    638756.42749    499017.76347  20693022.011    20693029.377    20693021.304
  -4242318.42949  -3285476.47945  23704423.662    23704434.670    23704423.150
 -14284486.56249 -11103979.15947  20969577.811    20969585.968    20969577.791
  -8993894.33749  -6995423.62545  23735505.351    23735516.621    23735505.121
 99  5 11 16 20 29.9980000  0  9G27G 2G26G 4G24G 7G 8G 9G 5
  10588802.75249   8240156.24545  24042442.686    24042455.632    24042441.779
    830227.76249    646916.47847  21670059.963    21670068.855    21670059.258
   3914242.40449   3048046.75146  23565689.979    23565701.404    23565689.954
 -16862877.72149 -13119046.14447  20668562.157    20668571.459    20668562.540
  -9240339.24849  -7176529.40445  22969877.509    22969890.892    22969877.897
    656864.14849    513127.61047  20696467.831    20696475.223    20696467.140
  -4384461.63449  -3396237.41645  23677374.653    23677385.721    23677374.235
 -14369129.71449 -11169934.84447  20953470.787    20953478.904    20953470.753
  -9112788.04049  -7088068.01445  23712880.572    23712891.994    23712880.391
 99  5 11 16 20 59.9980000  0  9G27G 2G26G 4G24G 7G 8G 9G 5
  10672197.01049   8305138.44345  24058312.394    24058325.265    24058311.447
    846301.48449    659441.35847  21673118.797    21673127.680    21673118.073
   3953733.25749   3078818.72245  23573204.946    23573216.371    23573204.914
 -16969189.45949 -13201886.43747  20648331.641    20648340.984    20648332.050
  -9383127.64049  -7287792.89645  22942705.714    22942719.054    22942706.049
    675082.92549    527323.99947  20699934.741    20699942.193    20699934.100
  -4526551.83349  -3506957.05045  23650335.843    23650346.791    23650335.407
 -14453414.01849 -11235610.90647  20937432.011    20937440.128    20937431.976
  -9231774.22049  -7180784.48845  23690238.226    23690249.755    23690238.018
 99  5 11 16 21 29.9980000  0  9G27G 2G26G 4G24G 7G 8G 9G 5
  10755614.53249   8370138.79345  24074186.521    24074199.388    24074185.594
    862542.91849    672096.91747  21676209.564    21676218.419    21676208.820
   3993247.52049   3109608.95545  23580724.275    23580735.765    23580724.286
 -17075085.50949 -13284402.80947  20628180.239    20628189.621    20628180.667
  -9525841.43049  -7398998.24245  22915548.077    22915561.383    22915548.396
    693441.77249    541629.53647  20703428.349    20703435.830    20703427.715
  -4668534.61149  -3617592.97445  23623317.380    23623328.409    23623316.982
 -14537300.39949 -11300976.89847  20921469.004    20921477.084    20921468.948
  -9350824.63549  -7273551.01945  23667583.637    23667595.230    23667583.460
 99  5 11 16 21 59.9980000  0  9G27G 2G26G 4G24G 7G 8G 9G 5
  10839058.00549   8435159.34245  24090065.574    24090078.456    24090064.628
    878937.27349    684871.64047  21679329.399    21679338.266    21679328.658
   4032803.64349   3140431.78645  23588251.630    23588263.184    23588251.649
 -17180571.91349 -13366599.97547  20608106.840    20608116.192    20608107.263
  -9668506.27149  -7510165.44246  22888399.765    22888412.984    22888400.067
    711930.10149    556035.96747  20706946.614    20706954.098    20706945.974
  -4810389.28449  -3728129.07145  23596323.322    23596334.414    23596322.953
 -14620779.06049 -11366025.19047  20905583.538    20905591.619    20905583.477
  -9469957.01449  -7366381.41645  23644913.447    23644925.093    23644913.300
 99  5 11 16 22 29.9980000  0  9G27G 2G26G 4G24G 7G 8G 9G 5
  10922495.86149   8500175.49345  24105943.558    24105956.431    24105942.498
    895474.58849    697757.74547  21682476.423    21682485.312    21682475.684
   4072401.41049   3171287.06845  23595786.842    23595798.541    23595786.885
 -17285670.50249 -13448494.95047  20588107.285    20588116.577    20588107.679
  -9811155.79549  -7621320.67145  22861254.321    22861267.533    22861254.605
    730536.41249    570534.33247  20710487.319    20710494.807    20710486.672
  -4952124.22749  -3838571.88645  23569352.068    23569363.188    23569351.654
 -14703844.07649 -11430751.16147  20889776.763    20889784.850    20889776.722
  -9589188.04949  -7459288.66845  23622224.473    23622236.180    23622224.335
 99  5 11 16 22 59.9980000  0  9G27G 2G26G 4G24G 7G 8G 9G 5
  11005936.18949   8565193.59945  24121821.907    24121834.886    24121820.862
    912174.49949    710770.56547  21685654.386    21685663.315    21685653.644
   4112058.26249   3202188.38545  23603333.401    23603345.131    23603333.440
 -17390368.94349 -13530078.12147  20568183.882    20568193.098    20568184.251
  -9953772.00549  -7732449.95645  22834115.187    22834128.450    22834115.501
    749276.05849    585136.58947  20714053.354    20714060.882    20714052.733
  -5093725.02349  -3948910.14645  23542406.326    23542417.472    23542405.954
 -14786470.68249 -11495135.51647  20874053.436    20874061.514    20874053.386
  -9708502.11349  -7552260.64745  23599519.813    23599531.413    23599519.626
 99  5 11 16 23 29.9980000  0  9G27G 2G26G 4G24G 7G 8G 9G 5
  11089346.53449   8630188.28745  24137694.561    24137707.479    24137693.503
    929026.65349    723902.01647  21688861.341    21688870.301    21688860.581
   4151748.16649   3233115.45945  23610886.331    23610897.976    23610886.338
 -17494697.50449 -13611373.07447  20548330.821    20548340.012    20548331.166
 -10096374.02449  -7843568.18645  22806978.730    22806991.972    22806979.043
    768120.91249    599820.82847  20717639.479    20717647.001    20717638.833
  -5235223.72449  -4059168.86245  23515480.033    23515491.150    23515479.610
 -14868680.11149 -11559194.79447  20858409.452    20858417.593    20858409.430
  -9827920.02749  -7645313.54045  23576795.397    23576806.933    23576795.174
 99  5 11 16 23 59.9970000  0  9G27G 2G26G 4G24G 7G 8G 9G 5
  11172683.65749   8695125.97444  24153553.311    24153566.355    24153552.204
    946047.81949    737165.15147  21692100.453    21692109.435    21692099.690
   4191455.45849   3264056.09245  23618442.533    23618454.131    23618442.500
 -17598647.87549 -13692373.32147  20528549.702    20528558.902    20528550.050
 -10238950.97649  -7954666.87645  22779847.105    22779860.301    22779847.398
    787064.67149    614582.13947  20721244.395    20721251.947    20721243.762
  -5376630.44749  -4169355.91245  23488571.255    23488582.277    23488570.822
 -14950470.27949 -11622927.37847  20842845.239    20842853.430    20842845.253
  -9947448.73449  -7738452.75145  23554049.873    23554061.333    23554049.644
 99  5 11 16 24 29.9970000  0  9G27G 2G26G 4G24G 7G 8G 9G 5
  11255970.00248   8760024.06344  24169402.417    24169415.438    24169401.524
    963288.26449    750599.15547  21695381.282    21695390.293    21695380.531
   4231198.44849   3295024.51645  23626005.427    23626017.069    23626005.430
 -17702201.37149 -13773064.31647  20508844.156    20508853.301    20508844.491
 -10381463.31449  -8065715.22145  22752727.781    22752740.925    22752728.057
    806132.02949    629439.76147  20724872.822    20724880.409    20724872.198
  -5517941.54249  -4279468.42345  23461680.644    23461691.675    23461680.212
 -15031825.63149 -11686321.14647  20827363.793    20827371.992    20827363.815
 -10067062.92449  -7831658.57445  23531288.130    23531299.479    23531287.844
 99  5 11 16 24 59.9970000  0  9G27G 2G26G 4G24G 7G 8G 9G 5
  11339188.11248   8824868.93644  24185238.499    24185251.770    24185237.614
    980715.42149    764178.66247  21698697.625    21698706.690    21698696.878
   4270937.48249   3325989.86945  23633567.620    23633579.279    23633567.607
 -17805387.19649 -13853468.81447  20489208.565    20489217.638    20489208.893
 -10523938.69849  -8176734.78446  22725615.497    22725628.597    22725615.783
    825279.59949    644359.90447  20728516.491    20728524.147    20728515.895
  -5659184.86449  -4389528.15445  23434802.957    23434813.963    23434802.495
 -15112792.13249 -11749411.90847  20811956.363    20811964.557    20811956.386
 -10186787.17649  -7924950.13445  23508505.300    23508516.662    23508505.100
 99  5 11 16 25 29.9970000  0  9G27G 2G26G 4G24G 7G 8G 9G 5
  11422367.88648   8889683.96444  24201067.384    24201080.842    24201066.419
    998355.83449    777924.33047  21702054.500    21702063.677    21702053.815
   4310693.28149   3356968.28745  23641132.907    23641144.641    23641133.007
 -17908178.56649 -13933565.94247  20469647.989    20469657.053    20469648.330
 -10666377.63549  -8287725.95846  22698510.133    22698523.168    22698510.430
    844529.19249    659359.53547  20732179.553    20732187.303    20732178.987
  -5800329.72349  -4499511.14845  23407943.895    23407954.922    23407943.525
 -15193340.67949 -11812177.00247  20796628.488    20796636.683    20796628.506
 -10306595.46149  -8018307.20545  23485706.486    23485717.814    23485706.306
 99  5 11 16 25 59.9970000  0  9G27G 2G26G 4G24G 7G 8G 9G 5
  11505514.92748   8954473.50044  24216889.957    24216903.461    24216889.091
   1016201.35449    791829.82847  21705450.408    21705459.672    21705449.766
   4350462.16249   3387956.88645  23648700.709    23648712.486    23648700.884
 -18010577.42949 -14013357.21047  20450162.056    20450171.175    20450162.439
 -10808777.10149  -8398686.37446  22671412.231    22671425.277    22671412.567
    863884.28749    674441.37747  20735862.684    20735870.501    20735862.157
  -5941374.11549  -4609415.84145  23381104.108    23381115.091    23381103.697
 -15273473.18049 -11874617.89447  20781379.776    20781387.967    20781379.784
 -10426488.34749  -8111730.19745  23462891.570    23462902.867    23462891.415
 99  5 11 16 26 29.9970000  0  9G27G 2G26G 4G24G 7G 8G 9G 5
  11588668.64648   9019268.23544  24232713.872    24232727.314    24232713.258
   1034247.89249    805891.96646  21708884.630    21708893.917    21708883.983
   4390256.73949   3418965.52945  23656273.464    23656285.248    23656273.540
 -18112566.93449 -14092829.49747  20430754.062    20430763.199    20430754.459
 -10951126.38149  -8509607.70146  22644323.915    22644336.909    22644324.244
    883366.63249    689622.37747  20739570.136    20739577.909    20739569.586
  -6082289.53549  -4719220.04545  23354288.754    23354299.773    23354288.415
 -15353170.75549 -11936719.88247  20766213.792    20766222.009    20766213.830
 -10546431.74449  -8205192.54245  23440066.997    23440078.316    23440066.862
 99  5 11 16 26 59.9970000  0  8G 2G26G 4G24G 7G 8G 9G 5
   1052492.19649    820108.20146  21712356.518    21712365.809    21712355.834
   4430077.50549   3449994.56745  23663851.066    23663862.975    23663851.194
 -18214130.51449 -14171969.90147  20411427.149    20411436.265    20411427.560
 -11093409.07549  -8620477.14346  22617248.213    22617261.203    22617248.588
    902998.42049    704919.82147  20743306.026    20743313.759    20743305.456
  -6223047.43449  -4828901.51145  23327503.441    23327514.488    23327503.057
 -15432408.47549 -11998463.54447  20751135.314    20751143.545    20751135.362
 -10666413.90149  -8298685.09445  23417235.107    23417246.456    23417235.002
 99  5 11 16 27 29.9970000  0  8G 2G26G 4G24G 7G 8G 9G 5
   1070912.74049    834461.77246  21715861.928    21715871.213    21715861.235
   4469903.63849   3481027.78445  23671429.782    23671441.765    23671429.887
 -18315273.55349 -14250782.61147  20392180.239    20392189.338    20392180.640
 -11235622.21349  -8731292.40946  22590185.737    22590198.734    22590186.179
    922770.64449    720326.69647  20747068.603    20747076.320    20747068.037
  -6363656.00749  -4938466.61745  23300746.477    23300757.610    23300746.122
 -15511193.43649 -12059854.40947  20736143.022    20736151.247    20736143.080
 -10786450.95249  -8392220.41145  23394392.823    23394404.145    23394392.659
 99  5 11 16 27 59.9970000  0  8G 2G26G 4G24G 7G 8G 9G 5
   1089507.83149    848951.35046  21719400.490    21719409.829    21719399.838
   4509753.63449   3512079.60845  23679013.075    23679025.101    23679013.166
 -18415978.22749 -14329253.73547  20373016.709    20373025.838    20373017.142
 -11377723.40849  -8842020.43846  22563144.561    22563157.566    22563145.030
    942699.98149    735856.00147  20750861.014    20750868.812    20750860.485
  -6504098.15249  -5047902.05545  23274021.182    23274032.373    23274020.897
 -15589513.16949 -12120882.76047  20721239.281    20721247.466    20721239.329
 -10906528.36549  -8485787.18845  23371542.863    23371554.163    23371542.646
 99  5 11 16 28 29.9970000  0  8G 2G26G 4G24G 7G 8G 9G 5
   1108298.35349    863593.21046  21722976.206    21722985.628    21722975.600
   4549650.26249   3543167.76845  23686605.357    23686617.280    23686605.356
 -18516207.55549 -14407354.45947  20353943.642    20353952.783    20353944.094
 -11519695.22049  -8952647.66946  22536128.037    22536141.031    22536128.535
    962796.83949    751515.83947  20754685.307    20754693.173    20754684.789
  -6644344.37449  -5157184.80045  23247333.199    23247344.395    23247332.888
 -15667339.91249 -12181526.96347  20706429.361    20706437.499    20706429.402
 -11026630.16849  -8579372.96645  23348688.178    23348699.501    23348688.018
 99  5 11 16 28 59.9970000  0  8G 2G26G 4G24G 7G 8G 9G 5
   1127285.01349    878387.90646  21726589.272    21726598.748    21726588.696
   4589579.36349   3574281.19745  23694203.863    23694215.672    23694203.745
 -18615971.82949 -14485092.79847  20334959.065    20334968.236    20334959.543
 -11661542.16149  -9063177.61346  22509135.351    22509148.244    22509135.834
    983025.85549    767278.65347  20758534.798    20758542.701    20758534.286
  -6784416.25849  -5266331.71045  23220678.332    23220689.634    23220678.076
 -15744685.95749 -12241796.59847  20691710.891    20691719.016    20691710.949
 -11146784.27249  -8672999.50745  23325823.564    23325834.937    23325823.441
 99  5 11 16 29 29.9970000  0  8G 2G26G 4G24G 7G 8G 9G 5
   1146472.87549    893339.39246  21730240.645    21730250.150    21730240.074
   4629546.53649   3605424.28645  23701809.488    23701821.298    23701809.401
 -18715260.93349 -14562460.87547  20316064.918    20316074.114    20316065.410
 -11803279.28349  -9173622.00146  22482163.584    22482176.420    22482164.040
   1003370.11249    783131.26747  20762406.296    20762414.161    20762405.735
  -6924318.69549  -5375346.55345  23194055.700    23194067.118    23194055.489
 -15821544.06949 -12301686.02247  20677085.263    20677093.399    20677085.333
 -11266984.12249  -8766661.67245  23302950.285    23302961.709    23302950.108
 99  5 11 16 29 59.9970000  0  8G 2G26G 4G24G 7G 8G 9G 5
   1165888.61149    908468.44346  21733935.425    21733944.919    21733934.842
   4669556.51349   3636600.76145  23709423.269    23709435.103    23709423.178
 -18814054.02449 -14639442.45547  20297265.167    20297274.391    20297265.663
 -11944889.53649  -9283967.53146  22455215.980    22455228.719    22455216.398
   1023829.77149    799073.80647  20766299.655    20766307.540    20766299.103
  -7064034.50749  -5484215.97645  23167468.681    23167480.114    23167468.485
 -15897895.69649 -12361180.78347  20662555.995    20662564.164    20662556.072
 -11387213.48749  -8860346.87445  23280071.411    23280082.767    23280071.176
 99  5 11 16 30 29.9970000  0  8G 2G26G 4G24G 7G 8G 9G 5
   1185513.30649    923760.31446  21737670.021    21737679.458    21737669.374
   4709550.18649   3667764.52045  23717033.884    23717045.777    23717033.826
 -18912388.01649 -14716066.29147  20278552.740    20278562.013    20278553.276
 -12086412.43949  -9394245.00746  22428285.000    22428297.661    22428285.398
   1044354.32449    815066.91547  20770205.295    20770213.257    20770204.792
  -7203596.63249  -5592965.63645  23140910.888    23140922.316    23140910.681
 -15973785.95249 -12420316.02847  20648114.529    20648122.718    20648114.634
 -11507515.41249  -8954088.58745  23257178.654    23257189.986    23257178.423
 99  5 11 16 30 59.9970000  0  8G 2G26G 4G24G 7G 8G 9G 5
   1205361.82649    939226.59346  21741447.204    21741456.632    21741446.520
   4749535.20049   3698921.51445  23724642.808    23724654.838    23724642.830
 -19010253.40249 -14792324.98847  20259929.459    20259938.785    20259930.038
 -12227814.22649  -9504428.11446  22401377.092    22401389.668    22401377.451
   1064966.95649    831128.65447  20774127.745    20774135.748    20774127.276
  -7342982.99149  -5701578.33345  23114386.540    23114397.960    23114386.270
 -16049211.57349 -12479089.22347  20633761.487    20633769.674    20633761.599
 -11627858.01849  -9047862.00845  23234278.188    23234289.520    23234277.965
 99  5 11 16 31 29.9970000  0  8G 2G26G 4G24G 7G 8G 9G 5
   1225429.73549    954863.82046  21745266.076    21745275.535    21745265.397
   4789514.87249   3730074.32745  23732250.853    23732262.860    23732250.810
 -19107654.37949 -14868221.80847  20241394.617    20241403.936    20241395.203
 -12369082.14849  -9614506.92646  22374494.647    22374507.147    22374494.978
   1085692.90649    847278.69047  20778071.795    20778079.820    20778071.326
  -7482184.84549  -5810047.27445  23087897.352    23087908.730    23087897.108
 -16124185.36249 -12537510.34447  20619494.425    20619502.626    20619494.535
 -11748230.64549  -9141658.81645  23211371.993    23211383.324    23211371.762
 99  5 11 16 31 59.9970000  0  8G 2G26G 4G24G 7G 8G 9G 5
   1245709.58149    970666.20146  21749125.277    21749134.761    21749124.597
   4829488.60349   3761222.52545  23739857.713    23739869.780    23739857.666
 -19204599.62649 -14943763.51347  20222946.472    20222955.828    20222947.084
 -12510189.37849  -9724460.53246  22347642.787    22347655.210    22347643.097
   1106549.93149    863530.86947  20782040.818    20782048.836    20782040.330
  -7621190.47149  -5918363.28245  23061445.509    23061456.842    23061445.208
 -16198724.66949 -12595592.91147  20605310.073    20605318.255    20605310.174
 -11868635.95249  -9235481.08445  23188459.462    23188470.912    23188459.337
 99  5 11 16 32 29.9970000  0  8G 2G26G 4G24G 7G 8G 9G 5
   1266179.82649    986616.93946  21753020.723    21753030.203    21753020.035
   4869463.42349   3792371.56645  23747464.822    23747476.881    23747464.738
 -19301111.62849 -15018967.62347  20204580.799    20204590.165    20204581.406
 -12651155.69149  -9834304.34646  22320817.725    22320830.089    22320818.043
   1127544.76949    879890.43047  20786036.125    20786044.095    20786035.585
  -7760007.63449  -6026532.44745  23035029.485    23035040.852    23035029.190
 -16272836.03949 -12653342.02147  20591207.190    20591215.304    20591207.255
 -11989083.28049  -9329336.10345  23165538.999    23165550.509    23165538.900
 99  5 11 16 32 59.9970000  0  8G 2G26G 4G24G 7G 8G 9G 5
   1286856.31549   1002728.39246  21756955.320    21756964.901    21756954.691
   4909467.73049   3823543.57945  23755077.459    23755089.571    23755077.363
 -19397162.59249 -15093812.49547  20186302.885    20186312.220    20186303.463
 -12791970.86149  -9944030.39346  22294021.446    22294033.720    22294021.719
   1148712.47849    896384.70047  20790064.232    20790072.215    20790063.709
  -7898621.06249  -6134542.86945  23008652.197    23008663.575    23008651.889
 -16346488.86349 -12710733.82047  20577191.539    20577199.619    20577191.605
 -12109548.17849  -9423204.81945  23142615.269    23142626.732    23142615.145
 99  5 11 16 33 29.9970000  0  8G 2G26G 4G24G 7G 8G 9G 5
   1307734.90749   1018997.33446  21760928.436    21760938.082    21760927.818
   4949496.50649   3854734.64945  23762694.736    23762706.947    23762694.680
 -19492750.52349 -15168296.56447  20168113.071    20168122.384    20168113.643
 -12932654.46449 -10053653.92646  22267250.172    22267262.433    22267250.437
   1170048.07349    913009.78347  20794124.251    20794132.261    20794123.753
  -8037045.52749  -6242406.02145  22982310.822    22982322.235    22982310.538
 -16419658.76649 -12767749.31947  20563267.787    20563275.830    20563267.836
 -12230047.74349  -9517100.52745  23119685.004    23119696.418    23119684.801
 99  5 11 16 33 59.9970000  0  8G 2G26G 4G24G 7G 8G 9G 5
   1328825.64249   1035431.57446  21764941.949    21764951.634    21764941.323
   4989541.87149   3885938.64745  23770315.197    23770327.457    23770315.143
 -19587874.08149 -15242418.78247  20150011.650    20150020.947    20150012.188
 -13073226.49249 -10163190.51246  22240500.151    22240512.338    22240500.407
   1191531.21049    929749.83047  20798212.429    20798220.422    20798211.912
  -8175280.69449  -6350121.68845  22956005.479    22956016.975    22956005.221
 -16492325.85349 -12824373.01947  20549439.709    20549447.741    20549439.745
 -12350588.68649  -9611028.49645  23096746.850    23096758.234    23096746.643
 99  5 11 16 34 29.9970000  0  8G 2G26G 4G24G 7G 8G 9G 5
   1350149.06849   1052047.13746  21768999.780    21769009.461    21768999.118
   5029604.13249   3917155.80745  23777938.999    23777951.232    23777938.858
 -19682513.42849 -15316163.69247  20132002.358    20132011.630    20132002.884
 -13213699.63549 -10272650.03646  22213768.920    22213781.089    22213769.190
   1213150.34749    946595.84547  20802326.521    20802334.462    20802325.958
  -8313330.48749  -6457692.91045  22929735.476    22929746.962    22929735.209
 -16564475.32049 -12880593.37847  20535710.102    20535718.150    20535710.147
 -12471158.46349  -9704978.93445  23073803.233    23073814.596    23073802.973
 99  5 11 16 34 59.9970000  0  8G 2G26G 4G24G 7G 8G 9G 5
   1371715.00049   1068851.65846  21773103.739    21773113.437    21773103.066
   5069671.06649   3948376.61245  23785563.649    23785575.900    23785563.491
 -19776652.86049 -15389519.06947  20114088.255    20114097.440    20114088.741
 -13354058.50449 -10382020.51546  22187059.437    22187071.581    22187059.700
   1234889.35549    963535.26647  20806463.415    20806471.328    20806462.833
  -8451192.78049  -6565118.02545  22903501.163    22903512.630    22903500.846
 -16636106.33049 -12936409.74347  20522079.169    20522087.223    20522079.210
 -12591757.18649  -9798951.90245  23050854.023    23050865.426    23050853.746
 99  5 11 16 35 29.9970000  0  8G 2G26G 4G24G 7G 8G 9G 5
   1393500.72549   1085827.46346  21777249.550    21777259.239    21777248.826
   5109727.87549   3979589.51645  23793186.272    23793198.654    23793186.132
 -19870314.99649 -15462502.51547  20096264.969    20096274.094    20096265.420
 -13494305.95049 -10491304.17046  22160371.143    22160383.268    22160371.438
   1256710.53449    980538.71347  20810615.912    20810623.833    20810615.323
  -8588875.68849  -6672403.34945  22877300.930    22877312.420    22877300.621
 -16707240.00149 -12991838.57447  20508542.882    20508550.962    20508542.918
 -12712405.45049  -9892963.48945  23027895.356    23027906.834    23027895.113
 99  5 11 16 35 59.9970000  0  8G 2G26G 4G24G 7G 8G 9G 5
   1415526.03449   1102989.92946  21781440.868    21781450.617    21781440.162
   5149791.48749   4010807.71845  23800810.223    23800822.708    23800810.088
 -19963479.90549 -15535098.51647  20078536.288    20078545.373    20078536.716
 -13634400.10549 -10600468.36146  22133712.030    22133724.134    22133712.340
   1278632.75049    997620.89847  20814787.635    20814795.560    20814787.041
  -8726345.31149  -6779522.47145  22851141.258    22851152.855    22851140.972
 -16777877.02749 -13046880.40747  20495101.120    20495109.194    20495101.153
 -12833075.83049  -9986992.29845  23004932.530    23004943.990    23004932.255
 99  5 11 16 36 29.9970000  0  8G 2G26G 4G24G 7G 8G 9G 5
   1437765.57649   1120319.34146  21785672.860    21785682.757    21785672.236
   5189847.05049   4042019.63945  23808432.716    23808445.235    23808432.549
 -20056149.61249 -15607308.64047  20060901.868    20060910.889    20060902.262
 -13774324.10949 -10709499.97746  22107085.294    22107097.384    22107085.600
   1300665.11949   1014788.90947  20818980.328    20818988.244    20818979.710
  -8863596.23749  -6886471.18445  22825023.235    22825034.835    22825022.940
 -16848032.86949 -13101547.29147  20481750.938    20481759.008    20481750.960
 -12953772.63549 -10081041.71746  22981964.703    22981976.127    22981964.401
 99  5 11 16 36 59.9970000  0  8G 2G26G 4G24G 7G 8G 9G 5
   1460198.75549   1137799.63346  21789941.758    21789951.778    21789941.175
   5229867.92349   4073204.53845  23816048.629    23816061.074    23816048.415
 -20148351.45749 -15679154.20047  20043356.443    20043365.414    20043356.825
 -13914072.54549 -10818394.77446  22080491.974    22080504.075    22080492.254
   1322809.59149   1032044.27647  20823194.338    20823202.256    20823193.730
  -9000635.45649  -6993254.91645  22798945.407    22798957.084    22798945.135
 -16917718.56449 -13155847.82947  20468490.198    20468498.269    20468490.199
 -13074512.71749 -10175124.86046  22958988.592    22959000.004    22958988.289
 99  5 11 16 37 29.9970000  0  8G 2G26G 4G24G 7G 8G 9G 5
   1482824.48449   1155429.96546  21794247.316    21794257.431    21794246.773
   5269853.29749   4104361.77745  23823657.741    23823670.223    23823657.511
 -20240077.85849 -15750629.28447  20025901.513    20025910.416    20025901.874
 -14053641.30249 -10927149.55146  22053932.855    22053944.954    22053933.136
   1345089.65849   1049405.30047  20827434.157    20827442.079    20827433.542
  -9137443.25649  -7099858.32645  22772911.613    22772923.427    22772911.411
 -16986925.44249 -13209775.26247  20455320.535    20455328.645    20455320.560
 -13195268.59749 -10269220.31645  22936009.498    22936020.852    22936009.202
 99  5 11 16 37 59.9970000  0  8G 2G26G 4G24G 7G 8G 9G 5
   1505654.17249   1173219.22046  21798591.781    21798601.875    21798591.205
   5309792.67849   4135483.16245  23831257.989    23831270.627    23831257.838
 -20331321.03149 -15821727.81947  20008538.513    20008547.390    20008538.871
 -14193028.90649 -11035763.17046  22027408.208    22027420.297    22027408.499
   1367520.03749   1066883.45047  20831702.553    20831710.520    20831701.949
  -9274009.16449  -7206273.25845  22746923.950    22746935.803    22746923.704
 -17055642.50749 -13263321.02547  20442244.115    20442252.216    20442244.148
 -13316024.79749 -10363316.00645  22913030.314    22913041.646    22913030.045
 99  5 11 16 38 29.9970000  0  8G 2G26G 4G24G 7G 8G 9G 5
   1528674.37049   1191156.93246  21802972.546    21802982.548    21802971.906
   5349663.03249   4166550.76345  23838845.246    23838857.909    23838845.081
 -20422097.83249 -15892462.95347  19991264.200    19991273.116    19991264.590
 -14332266.50049 -11144259.90846  22000912.148    22000924.189    22000912.434
   1390071.55649   1084455.98647  20835993.979    20836002.030    20835993.399
  -9410347.36749  -7312510.75445  22720979.523    22720991.463    22720979.314
 -17123878.79449 -13316492.15747  20429259.183    20429267.303    20429259.221
 -13436802.42049 -10457428.40045  22890047.048    22890058.360    22890046.787
 99  5 11 16 38 59.9970000  0  8G 2G26G 4G24G 7G 8G 9G 5
   1551904.15749   1209257.94746  21807393.215    21807403.146    21807392.526
   5389485.63649   4197581.16646  23846423.415    23846436.090    23846423.243
 -20512380.91349 -15962813.36447  19974083.862    19974092.808    19974084.253
 -14471351.85249 -11252638.00246  21974445.092    21974457.041    21974445.358
   1412731.83849   1102113.27847  20840306.116    20840314.212    20840305.549
  -9546452.67849  -7418566.78145  22695079.421    22695091.433    22695079.271
 -17191601.38049 -13369263.00347  20416371.991    20416380.130    20416372.020
 -13557584.53549 -10551544.29545  22867062.975    22867074.241    22867062.713
 99  5 11 16 39 29.9970000  0  8G 2G26G 4G24G 7G 8G 9G 5
   1575353.93149   1227530.39746  21811855.774    21811865.608    21811855.005
   5429274.20849   4228585.04445  23853995.157    23854007.804    23853994.940
 -20602152.08149 -16032764.88047  19957000.907    19957009.898    19957001.334
 -14610277.04849 -11360891.29246  21948008.472    21948020.413    21948008.725
   1435494.59649   1119850.42347  20844637.821    20844645.892    20844637.228
  -9682319.43649  -7524436.91445  22669224.802    22669236.787    22669224.643
 -17258799.79549 -13421625.39647  20403584.528    20403592.669    20403584.585
 -13678376.22649 -10645667.61445  22844076.983    22844088.341    22844076.767
 99  5 11 16 39 59.9970000  0  8G 2G26G 4G24G 7G 8G 9G 5
   1599021.12449   1245972.25746  21816359.674    21816369.455    21816358.874
   5469020.47749   4259555.98145  23861558.774    23861571.439    23861558.569
 -20691414.05649 -16102319.61847  19940014.848    19940023.875    19940015.302
 -14749039.28249 -11469017.60246  21921602.799    21921614.762    21921603.067
   1458345.27349   1137656.07247  20848986.282    20848994.303    20848985.660
  -9817964.83049  -7630134.54345  22643412.378    22643424.327    22643412.169
 -17325487.64349 -13473589.94747  20390894.217    20390902.381    20390894.299
 -13799205.86249 -10739820.50245  22821083.775    22821095.203    22821083.548
 99  5 11 16 40 29.9970000  0  8G 2G26G 4G24G 7G 8G 9G 5
   1622920.99749   1264595.42146  21820907.723    21820917.553    21820906.964
   5508744.17949   4290509.29145  23869118.078    23869130.824    23869117.857
 -20780137.20649 -16171454.50047  19923131.355    19923140.381    19923131.810
 -14887617.89349 -11577000.82946  21895232.052    21895244.049    21895232.364
   1481292.85049   1155537.22547  20853353.138    20853361.161    20853352.505
  -9953375.69949  -7735649.44345  22617644.552    22617656.435    22617644.326
 -17391646.34549 -13525142.17447  20378304.635    20378312.813    20378304.707
 -13920058.02249 -10833990.96645  22798086.257    22798097.721    22798086.104
 99  5 11 16 40 59.9970000  0  8G 2G26G 4G24G 7G 8G 9G 5
   1647034.45849   1283385.01946  21825496.387    21825506.302    21825495.687
   5548422.52549   4321427.28445  23876668.675    23876681.517    23876668.510
 -20868328.72749 -16240175.12247  19906349.027    19906358.065    19906349.492
 -15026020.45949 -11684846.89346  21868894.815    21868906.782    21868895.127
   1504330.55549   1173488.61347  20857737.055    20857745.183    20857736.474
 -10088572.28949  -7840997.35345  22591917.468    22591929.348    22591917.258
 -17457303.90549 -13576303.90547  20365810.454    20365818.587    20365810.493
 -14040946.08249 -10928189.39945  22775081.963    22775093.413    22775081.826
 99  5 11 16 41 29.9970000  0  8G 2G26G 4G24G 7G 8G 9G 5
   1671391.68249   1302364.55846  21830131.471    21830141.439    21830130.790
   5588071.96449   4352322.75045  23884213.815    23884226.724    23884213.652
 -20955980.64449 -16308475.27447  19889669.345    19889678.408    19889669.841
 -15164214.29949 -11792530.31146  21842597.323    21842609.239    21842597.611
   1527493.29149   1191537.43447  20862144.796    20862153.001    20862144.226
 -10223515.04849  -7946147.49245  22566238.639    22566250.506    22566238.455
 -17522466.58849 -13627080.01447  20353410.367    20353418.518    20353410.426
 -14161842.57349 -11022394.40345  22752076.126    22752087.505    22752075.953
 99  5 11 16 41 59.9970000  0  8G 2G26G 4G24G 7G 8G 9G 5
   1695989.88149   1321531.88246  21834812.392    21834822.412    21834811.738
   5627706.71249   4383206.76345  23891756.204    23891769.178    23891756.031
 -21043083.10449 -16376347.27647  19873094.281    19873103.347    19873094.766
 -15302195.36549 -11900047.93146  21816340.332    21816352.216    21816340.618
   1550775.75849   1209679.54447  20866575.348    20866583.604    20866574.782
 -10358180.44449  -8051081.49145  22540612.613    22540624.440    22540612.412
 -17587127.40249 -13677465.05547  20341105.855    20341113.969    20341105.896
 -14282725.20949 -11116588.58645  22729072.923    22729084.251    22729072.737
 99  5 11 16 42 29.9970000  0  8G 2G26G 4G24G 7G 8G 9G 5
   1720820.96349   1340880.65546  21839537.651    21839547.721    21839537.010
   5667322.28649   4414075.84745  23899294.989    23899307.936    23899294.820
 -21129659.79749 -16443809.59347  19856619.297    19856628.327    19856619.769
 -15439974.34549 -12007408.08946  21790121.800    21790133.647    21790122.088
   1574152.34049   1227894.99247  20871023.876    20871032.097    20871023.272
 -10492575.45749  -8155804.79345  22515038.073    22515049.847    22515037.888
 -17651289.51349 -13727461.50247  20328896.240    20328904.310    20328896.259
 -14403600.79149 -11210777.28646  22706071.103    22706082.353    22706070.860
 99  5 11 16 42 59.9970000  0  9G 2G26G 4G16G24G 7G 8G 9G 5
   1745869.57249   1360398.94346  21844304.298    21844314.419    21844303.670
   5706904.79549   4444919.10245  23906827.443    23906840.444    23906827.255
 -21215739.43749 -16510884.59647  19840238.875    19840247.854    19840239.330
  -2301860.64559  -1778412.50755  24219158.486    24219175.382    24219158.189
 -15577553.17249 -12114612.28546  21763941.378    21763953.151    21763941.625
   1597609.37049   1246173.12547  20875487.687    20875495.892    20875487.056
 -10626704.27749  -8260320.68045  22489514.237    22489525.930    22489513.975
 -17714972.66449 -13777084.72647  20316777.718    20316785.788    20316777.743
 -14524491.53549 -11304977.80246  22683066.383    22683077.535    22683066.115
 99  5 11 16 43 29.9970000  0  9G 2G26G 4G16G24G 7G 8G 9G 5
   1771135.21749   1380086.34146  21849112.269    21849122.396    21849111.616
   5746464.78249   4475744.84045  23914355.648    23914368.672    23914355.427
 -21301334.16549 -16577581.75447  19823950.745    19823959.664    19823951.179
  -2388245.50149  -1845725.37045  24202720.102    24202736.815    24202719.694
 -15714929.92249 -12221659.00146  21737799.440    21737811.136    21737799.658
   1621138.38949   1264507.34747  20879965.122    20879973.348    20879964.523
 -10760564.62149  -8364627.37545  22464041.495    22464053.071    22464041.182
 -17778156.42349 -13826318.81647  20304754.195    20304762.310    20304754.262
 -14645396.03049 -11399189.04246  22660059.071    22660070.085    22660058.779
 99  5 11 16 43 59.9970000  0  9G 2G26G 4G16G24G 7G 8G 9G 5
   1796623.86549   1399947.51046  21853962.661    21853972.805    21853962.009
   5786000.00949   4506551.27545  23921879.118    23921892.241    23921878.904
 -21386432.28949 -16643891.94247  19807757.087    19807765.990    19807757.542
  -2474351.72149  -1912821.05145  24186334.512    24186351.229    24186334.209
 -15852108.97749 -12328551.69546  21711695.094    21711706.753    21711695.306
   1644753.10449   1282908.34347  20884458.876    20884467.146    20884458.295
 -10894168.76649  -8468734.42545  22438617.446    22438628.956    22438617.148
 -17840820.98649 -13875148.33947  20292829.551    20292837.646    20292829.591
 -14766320.51149 -11493415.83746  22637047.868    22637058.885    22637047.580
 99  5 11 16 44 29.9970000  0  9G 2G26G 4G16G24G 7G 8G 9G 5
   1822339.04749   1419985.20946  21858856.229    21858866.352    21858855.536
   5825491.23349   4537323.42645  23929394.158    23929407.381    23929394.010
 -21471041.59349 -16709821.22747  19791656.461    19791665.343    19791656.904
  -2560176.18549  -1979697.19045  24170002.568    24170019.338    24170002.317
 -15989092.94649 -12435292.36746  21685627.910    21685639.494    21685628.063
   1668468.96749   1301388.15847  20888971.892    20888980.180    20888971.322
 -11027528.26549  -8572650.83645  22413239.985    22413251.418    22413239.662
 -17902971.46749 -13923577.27647  20281002.748    20281010.809    20281002.766
 -14887273.48249 -11587664.83146  22614031.210    22614042.247    22614030.959
 99  5 11 16 44 59.9970000  0  9G 2G26G 4G16G24G 7G 8G 9G 5
   1848263.94749   1440186.30946  21863789.682    21863799.781    21863788.970
   5864925.14549   4568050.92945  23936898.318    23936911.611    23936898.181
 -21555152.81649 -16775362.40647  19775650.602    19775659.460    19775651.047
  -2645727.87449  -2046360.81145  24153722.630    24153739.408    24153722.327
 -16125897.78249 -12541893.45946  21659594.763    21659606.312    21659594.915
   1692294.42449   1319953.36847  20893505.797    20893514.100    20893505.212
 -11160648.00449  -8676380.42545  22387908.067    22387919.498    22387907.788
 -17964620.40449 -13971615.40747  20269271.314    20269279.412    20269271.344
 -15008261.38649 -11681941.04746  22591007.897    22591018.958    22591007.665
 99  5 11 16 45 29.9970000  0  9G 2G26G 4G16G24G 7G 8G 9G 5
   1874408.93749   1460558.91046  21868765.002    21868775.110    21868764.276
   5904300.73249   4598732.97345  23944391.441    23944404.736    23944391.281
 -21638744.15849 -16840498.48647  19759743.633    19759752.512    19759744.099
  -2731003.65549  -2112809.34945  24137495.107    24137511.931    24137494.839
 -16262536.16449 -12648364.84946  21633593.287    21633604.798    21633593.428
   1716245.59649   1338616.55247  20898063.619    20898071.943    20898063.027
 -11293523.52249  -8779919.71745  22362622.578    22362634.028    22362622.362
 -18025762.32349 -14019258.45947  20257636.346    20257644.491    20257636.404
 -15129274.86149 -11776237.20846  22567979.705    22567990.784    22567979.512
 99  5 11 16 45 59.9960000  0  9G 2G26G 4G16G24G 7G 8G 9G 5
   1900796.31149   1481120.37646  21873786.427    21873796.581    21873785.712
   5943612.26649   4629365.10245  23951872.389    23951885.715    23951872.170
 -21721778.55849 -16905200.58647  19743942.671    19743951.570    19743943.145
  -2815990.38049  -2179032.67945  24121322.584    24121339.416    24121322.331
 -16398979.10749 -12754683.96446  21607629.015    21607640.469    21607629.175
   1740333.28349   1357386.10947  20902647.416    20902655.760    20902646.820
 -11426126.62049  -8883246.72546  22337388.948    22337400.406    22337388.773
 -18086393.93049 -14066503.86747  20246098.553    20246106.714    20246098.583
 -15250297.24549 -11870540.31246  22544949.792    22544960.901    22544949.649
 99  5 11 16 46 29.9960000  0  9G 2G26G 4G16G24G 7G 8G 9G 5
   1927419.68449   1501865.75746  21878852.774    21878862.960    21878852.064
   5982839.55449   4659931.56645  23959337.212    23959350.651    23959336.992
 -21804268.99249 -16969478.82147  19728245.234    19728254.125    19728245.704
  -2900701.64749  -2245041.35645  24105202.552    24105219.257    24105202.352
 -16535233.88449 -12860856.44746  21581700.534    21581711.950    21581700.708
   1764529.67649   1376240.37447  20907251.914    20907260.258    20907251.297
 -11558459.23749  -8986362.98846  22312206.837    22312218.271    22312206.645
 -18146524.44349 -14113358.81447  20234656.078    20234664.269    20234656.123
 -15371333.59049 -11964854.24946  22521917.256    22521928.390    22521917.129
 99  5 11 16 46 59.9960000  0  9G 2G26G 4G16G24G 7G 8G 9G 5
   1954312.56449   1522821.12946  21883970.413    21883980.619    21883969.708
   6022001.97949   4690447.47345  23966789.809    23966803.278    23966789.600
 -21886187.15849 -17033311.12847  19712656.710    19712665.573    19712657.165
  -2985105.43149  -2310810.30145  24089140.700    24089157.612    24089140.650
 -16671262.85649 -12966852.98246  21555815.011    21555826.401    21555815.181
   1788849.27349   1395190.63647  20911879.851    20911888.186    20911879.233
 -11690483.77049  -9089239.17446  22287083.315    22287094.712    22287083.150
 -18206117.52649 -14159794.99047  20223315.887    20223324.096    20223315.941
 -15492344.54049 -12059148.42746  22498889.620    22498900.727    22498889.443
 99  5 11 16 47 29.9960000  0  9G 2G26G 4G16G24G 7G 8G 9G 5
   1981479.11049   1543989.75746  21889140.102    21889150.360    21889139.418
   6061083.82249   4720900.59445  23974227.064    23974240.578    23974226.818
 -21967549.71649 -17096710.49947  19697173.939    19697182.774    19697174.386
  -3069203.93148  -2376341.52045  24073137.249    24073154.112    24073137.254
 -16807056.43949 -13072666.08546  21529974.242    21529985.632    21529974.457
   1813274.81349   1414223.45047  20916527.941    20916536.281    20916527.322
 -11822199.65549  -9191874.85146  22262018.517    22262029.889    22262018.355
 -18265160.38049 -14205802.41747  20212080.403    20212088.611    20212080.456
 -15613325.93149 -12153419.58046  22475867.549    22475878.688    22475867.397
 99  5 11 16 47 59.9960000  0  9G 2G26G 4G16G24G 7G 8G 9G 5
   2008893.42449   1565351.43946  21894356.949    21894367.278    21894356.270
   6100082.53549   4751288.95145  23981648.404    23981662.015    23981648.210
 -22048379.21149 -17159694.49747  19681792.613    19681801.406    19681793.029
  -3153010.91649  -2441645.45245  24057189.220    24057206.065    24057189.194
 -16942598.96349 -13178283.55746  21504181.265    21504192.664    21504181.495
   1837784.15849   1433321.56547  20921191.978    20921200.307    20921191.351
 -11953619.76449  -9294280.04746  22237010.055    22237021.415    22237009.890
 -18323647.87049 -14251377.09447  20200950.633    20200958.835    20200950.666
 -15734272.73149 -12247663.78346  22452852.160    22452863.198    22452851.952
 99  5 11 16 48 29.9960000  0  9G 2G26G 4G16G24G 7G 8G 9G 5
   2036536.07949   1586891.06446  21899617.313    21899627.634    21899616.608
   6139018.98249   4781628.78645  23989057.947    23989071.608    23989057.682
 -22128681.16249 -17222267.41747  19666511.676    19666520.420    19666512.087
  -3236525.12949  -2506721.22945  24041296.989    24041313.769    24041296.938
 -17077886.19349 -13283702.09746  21478436.925    21478448.273    21478437.142
   1862392.74949   1452497.01147  20925874.902    20925883.220    20925874.277
 -12084747.31149  -9396457.28146  22212057.249    22212068.612    22212057.082
 -18381560.09649 -14296503.51047  20189930.346    20189938.516    20189930.348
 -15855171.07649 -12341870.22046  22429845.928    22429856.937    22429845.719
 99  5 11 16 48 59.9960000  0  9G 2G26G 4G16G24G 7G 8G 9G 5
   2064364.60549   1608575.50846  21904913.046    21904923.348    21904912.314
   6177887.37549   4811915.61345  23996454.563    23996468.209    23996454.290
 -22208470.27249 -17284440.72547  19651328.324    19651337.025    19651328.717
  -3319763.52749  -2571582.15245  24025457.128    24025473.857    24025457.067
 -17212947.08149 -13388944.27646  21452735.677    21452746.965    21452735.881
   1887087.80649   1471739.82647  20930574.326    20930582.588    20930573.674
 -12215608.53849  -9498426.98246  22187155.168    22187166.500    22187154.971
 -18438917.65849 -14341197.72547  20179015.619    20179023.752    20179015.586
 -15976048.69149 -12436060.50146  22406843.701    22406854.641    22406843.429
 99  5 11 16 49 29.9960000  0  9G 2G26G 4G16G24G 7G 8G 9G 5
   2092356.00649   1630386.88446  21910239.760    21910250.069    21910238.997
   6216692.01649   4842152.76045  24003839.072    24003852.675    24003838.779
 -22287741.27449 -17346210.31047  19636243.515    19636252.223    19636243.925
  -3402727.81649  -2636229.38945  24009669.379    24009686.269    24009669.424
 -17347784.28949 -13494012.13746  21427076.955    21427088.235    21427077.156
   1911872.27949   1491052.32647  20935290.790    20935298.986    20935290.089
 -12346204.27849  -9600189.79746  22162303.607    22162314.905    22162303.387
 -18495728.75649 -14385466.11847  20168204.790    20168212.961    20168204.778
 -16096911.20049 -12530239.01346  22383844.295    22383855.236    22383844.057
 99  5 11 16 49 59.9960000  0  9G 2G26G 4G16G24G 7G 8G 9G 5
   2120509.19349   1652324.31346  21915597.211    21915607.564    21915596.454
   6255434.63449   4872341.57145  24011211.760    24011225.360    24011211.442
 -22366473.50649 -17407560.08547  19621261.207    19621269.919    19621261.639
  -3485398.72148  -2700648.15245  23993937.378    23993954.293    23993937.580
 -17482391.02449 -13598900.42446  21401462.048    21401473.348    21401462.263
   1936752.20649   1510439.19947  20940025.298    20940033.549    20940024.633
 -12476523.67149  -9701737.28546  22137504.611    22137515.914    22137504.379
 -18551998.99549 -14429313.06947  20157496.952    20157505.080    20157496.929
 -16217760.25749 -12624407.03946  22360847.444    22360858.376    22360847.200
 99  5 11 16 50 29.9960000  0  9G 2G26G 4G16G24G 7G 8G 9G 5
   2148853.78149   1674410.88846  21920991.096    21921001.483    21920990.367
   6294104.93449   4902474.04245  24018570.670    24018584.321    24018570.350
 -22444646.25049 -17468473.89547  19606385.439    19606394.101    19606385.839
  -3567737.25449  -2764807.85145  23978268.897    23978285.585    23978268.943
 -17616771.59049 -13703612.46446  21375890.166    21375901.517    21375890.405
   1961736.88449   1529907.70147  20944779.727    20944788.044    20944779.094
 -12606538.17349  -9803047.20446  22112763.646    22112774.932    22112763.409
 -18607728.73149 -14472738.84447  20146891.945    20146900.069    20146891.922
 -16338598.49149 -12718566.63946  22337852.658    22337863.576    22337852.408
 99  5 11 16 50 59.9960000  0  9G 2G26G 4G16G24G 7G 8G 9G 5
   2177421.17449   1696671.07646  21926427.433    21926437.801    21926426.668
   6332696.42249   4932545.08645  24025914.517    24025928.288    24025914.260
 -22522250.49449 -17528944.71847  19591617.795    19591626.456    19591618.222
  -3649715.57049  -2828686.75745  23962669.072    23962685.616    23962668.956
 -17750922.52449 -13808145.57046  21350361.991    21350373.363    21350362.256
   1986822.12749   1549454.56847  20949553.326    20949561.671    20949552.691
 -12736224.35649  -9904101.29046  22088085.111    22088096.393    22088084.890
 -18662928.74749 -14515751.85347  20136387.776    20136395.869    20136387.730
 -16459424.33649 -12812716.56846  22314860.126    22314871.090    22314859.952
 99  5 11 16 51 29.9960000  0  9G 2G26G 4G16G24G 7G 8G 9G 5
   2206224.43549   1719115.05546  21931908.611    21931918.991    21931907.842
   6371184.85049   4962535.86245  24033238.761    24033252.635    24033238.499
 -22599303.84049 -17588986.26847  19576954.983    19576963.671    19576955.425
  -3731347.72649  -2892296.03845  23947134.670    23947151.309    23947134.653
 -17884829.73049 -13912488.75946  21324880.218    21324891.620    21324880.499
   2011989.59449   1569065.50247  20954342.617    20954350.944    20954341.973
 -12865584.07549 -10004900.97046  22063468.638    22063479.966    22063468.468
 -18717613.39649 -14558363.28147  20125981.637    20125989.720    20125981.603
 -16580248.86249 -12906865.47346  22291867.869    22291878.882    22291867.747
 99  5 11 16 51 59.9960000  0  9G 2G26G 4G16G24G 7G 8G 9G 5
   2235297.90349   1741769.58146  21937441.184    21937451.609    21937440.430
   6409569.09549   4992445.42545  24040543.230    24040557.192    24040542.952
 -22675788.20349 -17648584.46347  19562400.466    19562409.152    19562400.904
  -3812615.14949  -2955621.09745  23931669.836    23931686.444    23931669.821
 -18018475.41149 -14016628.16446  21299448.225    21299459.643    21299448.489
   2037242.27049   1588742.83647  20959148.176    20959156.428    20959147.486
 -12994601.72249 -10105434.10846  22038917.282    22038928.630    22038917.165
 -18771773.23049 -14600565.76447  20115675.373    20115683.431    20115675.337
 -16701064.98649 -13001007.84246  22268877.252    22268888.285    22268877.158
 99  5 11 16 52 29.9960000  0  9G 2G26G 4G16G24G 7G 8G 9G 5
   2264663.56549   1764651.80146  21943029.357    21943039.788    21943028.599
   6447876.93949   5022295.48745  24047833.154    24047847.099    24047832.855
 -22751694.85149 -17707732.49247  19547955.911    19547964.564    19547956.350
  -3893516.67649  -3018661.03345  23916274.505    23916291.241    23916274.527
 -18151855.30949 -14120560.45946  21274066.819    21274078.218    21274067.072
   2062600.42849   1608502.35347  20963973.748    20963981.979    20963973.061
 -13123268.60649 -10205693.92246  22014432.741    22014444.068    22014432.605
 -18825396.66349 -14642350.27347  20105471.174    20105479.238    20105471.147
 -16821861.92149 -13095135.24946  22245890.291    22245901.341    22245890.177
 99  5 11 16 52 59.9960000  0  9G 2G26G 4G16G24G 7G 8G 9G 5
   2294287.48349   1787735.25646  21948666.628    21948677.118    21948665.928
   6486095.94149   5052076.29745  24055106.138    24055120.119    24055105.838
 -22827044.33249 -17766446.36047  19533617.432    19533626.031    19533617.838
  -3974099.53949  -3081452.68045  23900939.674    23900956.683    23900939.836
 -18284977.64549 -14224292.06646  21248734.435    21248745.784    21248734.674
   2088038.32249   1628324.01147  20968814.454    20968822.721    20968813.784
 -13251612.32449 -10305701.93146  21990009.698    21990020.997    21990009.565
 -18878500.70149 -14683730.05447  20095365.843    20095373.895    20095365.813
 -16942659.07749 -13189262.82446  22222903.246    22222914.341    22222903.164
 99  5 11 16 53 29.9960000  0  9G 2G26G 4G16G24G 7G 8G 9G 5
   2324158.34349   1811011.12746  21954350.994    21954361.453    21954350.262
   6524227.19649   5081788.70245  24062362.420    24062376.511    24062362.145
 -22901822.72049 -17824715.23147  19519387.640    19519396.157    19519388.001
  -4054353.75349  -3143988.18645  23885667.702    23885684.740    23885667.848
 -18417824.10849 -14327808.71346  21223454.555    21223465.819    21223454.794
   2113570.73749   1648219.31647  20973673.142    20973681.470    20973672.498
 -13379626.62449 -10405453.23946  21965649.296    21965660.597    21965649.195
 -18931069.47249 -14724692.75247  20085362.340    20085370.385    20085362.313
 -17063451.18549 -13283386.47046  22199917.229    22199928.288    22199917.131
 99  5 11 16 53 59.9960000  0  9G 2G26G 4G16G24G 7G 8G 9G 5
   2354245.92249   1834455.86846  21960076.558    21960087.052    21960075.808
   6562263.12849   5111426.88345  24069600.629    24069614.786    24069600.331
 -22976035.03649 -17882543.00147  19505265.496    19505274.013    19505265.859
  -4134272.41749  -3206262.36445  23870459.404    23870476.551    23870459.562
 -18550421.67849 -14431131.41746  21198222.043    21198233.225    21198222.267
   2139195.08449   1668186.26047  20978549.355    20978557.729    20978548.706
 -13507320.80249 -10504955.09646  21941349.822    21941361.120    21941349.745
 -18983109.76449 -14765243.64147  20075459.416    20075467.434    20075459.387
 -17184244.71949 -13377511.21446  22176930.941    22176941.974    22176930.842
 99  5 11 16 54 29.9960000  0  9G 2G26G 4G16G24G 7G 8G 9G 5
   2384550.13549   1858069.41146  21965843.275    21965853.864    21965842.567
   6600214.75749   5140999.36345  24076822.874    24076837.021    24076822.507
 -23049686.29449 -17939933.58747  19491250.132    19491258.641    19491250.506
  -4213861.93149  -3268279.97145  23855313.743    23855330.886    23855314.008
 -18682759.93949 -14534252.05846  21173038.864    21173050.029    21173039.075
   2164914.91549   1688227.61147  20983443.728    20983452.153    20983443.082
 -13634683.86449 -10604198.94246  21917113.375    21917124.644    21917113.292
 -19034611.55449 -14805374.92047  20065658.918    20065666.955    20065658.915
 -17305026.69049 -13471626.94546  22153946.831    22153957.869    22153946.735
 99  5 11 16 54 59.9960000  0  9G 2G26G 4G16G24G 7G 8G 9G 5
   2415054.96049   1881839.27046  21971648.204    21971658.840    21971647.499
   6638056.19049   5170485.97245  24084024.039    24084038.261    24084023.638
 -23122794.03649 -17996900.65047  19477338.203    19477346.692    19477338.561
  -4293117.08849  -3330037.05145  23840231.977    23840249.105    23840232.132
 -18814830.99549 -14637164.48347  21147906.543    21147917.685    21147906.744
   2190709.39749   1708327.12847  20988352.281    20988360.760    20988351.652
 -13761711.71449 -10703181.59646  21892940.730    21892951.969    21892940.606
 -19085584.25449 -14845093.92547  20055959.179    20055967.190    20055959.162
 -17425801.23249 -13565736.90546  22130964.163    22130975.146    22130964.062
 99  5 11 16 55 29.9960000  0  9G 2G26G 4G16G24G 7G 8G 9G 5
   2445782.74749   1905782.86246  21977495.576    21977506.235    21977494.870
   6675775.68449   5199877.54645  24091201.949    24091216.276    24091201.583
 -23195362.92249 -18053447.82247  19463528.796    19463537.276    19463529.142
  -4372027.35149  -3391525.42845  23825215.880    23825232.827    23825215.954
 -18946641.71149 -14739874.04147  21122823.770    21122834.878    21122823.966
   2216587.45849   1728491.77647  20993276.755    20993285.255    20993276.135
 -13888406.71549 -10801904.87246  21868831.382    21868842.612    21868831.275
 -19136034.02049 -14884405.44647  20046358.968    20046366.934    20046358.925
 -17546566.52749 -13659839.65646  22107983.287    22107994.175    22107983.148
 99  5 11 16 55 59.9960000  0  9G 2G26G 4G16G24G 7G 8G 9G 5
   2476774.20849   1929931.91346  21983393.138    21983403.823    21983392.444
   6713399.95149   5229194.95545  24098361.832    24098376.103    24098361.445
 -23267375.28049 -18109561.33847  19449825.284    19449833.767    19449825.653
  -4450596.74549  -3452748.32245  23810264.803    23810281.305    23810264.699
 -19078182.87349 -14842373.56547  21097792.297    21097803.366    21097792.454
   2242547.83849   1748720.56147  20998216.917    20998225.409    20998216.277
 -14014763.02349 -10900364.24046  21844786.514    21844797.704    21844786.421
 -19185937.88549 -14923291.59047  20036862.595    20036870.555    20036862.549
 -17667291.42049 -13753910.92846  22085010.080    22085020.923    22085009.915
 99  5 11 16 56 29.9960000  0  9G 2G26G 4G16G24G 7G 8G 9G 5
   2508067.92149   1954316.48246  21989348.275    21989358.949    21989347.568
   6750956.32649   5258459.40845  24105508.831    24105523.050    24105508.303
 -23338804.10649 -18165220.15447  19436232.832    19436241.311    19436233.186
  -4528808.34349  -3513692.21545  23795381.435    23795398.023    23795381.360
 -19209423.47149 -14944638.89046  21072817.963    21072829.044    21072818.134
   2268604.09049   1769024.05747  21003175.325    21003183.815    21003174.680
 -14140762.16849 -10998545.29146  21820809.655    21820820.793    21820809.518
 -19235273.75449 -14961735.14447  20027474.259    20027482.243    20027474.240
 -17787949.59349 -13847930.21046  22062049.554    22062060.370    22062049.381
 99  5 11 16 56 59.9960000  0  9G 2G26G 4G16G24G 7G 8G 9G 5
   2539609.64849   1978894.30346  21995350.657    21995361.289    21995349.911
   6788393.51549   5287631.05045  24112633.192    24112647.397    24112632.598
 -23409677.29249 -18220445.99647  19422746.077    19422754.577    19422746.448
  -4606675.02949  -3574367.55245  23780563.837    23780580.184    23780563.657
 -19340400.75449 -15046699.03846  21047893.732    21047904.795    21047893.927
   2294720.75249   1789374.62947  21008145.234    21008153.760    21008144.588
 -14266449.06749 -11096483.04946  21796892.170    21796903.315    21796892.038
 -19284079.77849 -14999765.82747  20018186.811    20018194.816    20018186.776
 -17908577.63349 -13941926.01146  22039094.777    22039105.548    22039094.600
 99  5 11 16 57 29.9960000  0  9G 2G26G 4G16G24G 7G 8G 9G 5
   2571404.46649   2003669.34546  22001401.201    22001411.799    22001400.400
   6825723.35149   5316718.99745  24119737.123    24119751.267    24119736.536
 -23479968.19849 -18275218.11447  19409370.174    19409378.657    19409370.534
  -4684193.77649  -3634771.70145  23765812.451    23765828.701    23765812.293
 -19471107.82249 -15148548.62846  21023020.947    21023031.955    21023021.133
   2320910.05449   1809781.81147  21013128.944    21013137.514    21013128.309
 -14391823.83049 -11194177.58646  21773034.074    21773045.199    21773033.931
 -19332344.52549 -15037374.73347  20009002.381    20009010.369    20009002.335
 -18029166.54449 -14035891.32146  22016147.465    22016158.190    22016147.269
 99  5 11 16 57 59.9960000  0  9G 2G26G 4G16G24G 7G 8G 9G 5
   2603424.61049   2028619.96146  22007494.615    22007505.172    22007493.777
   6862959.41949   5345733.87545  24126823.062    24126837.283    24126822.476
 -23549666.55949 -18329528.50647  19396106.976    19396115.484    19396107.365
  -4761354.61449  -3694896.98545  23751129.054    23751145.383    23751128.947
 -19601519.90249 -15250168.36947  20998204.291    20998215.245    20998204.473
   2347179.30749   1830251.27747  21018127.910    21018136.482    21018127.262
 -14516869.55249 -11291615.72446  21749238.585    21749249.720    21749238.456
 -19380049.89849 -15074547.76847  19999924.374    19999932.349    19999924.316
 -18149710.53049 -14129821.61846  21993208.637    21993219.355    21993208.446
 99  5 11 16 58 29.9960000  0  9G 2G26G 4G16G24G 7G 8G 9G 5
   2635644.93249   2053726.54646  22013626.161    22013636.652    22013625.247
   6900082.32749   5374660.58045  24133887.417    24133901.846    24133886.906
 -23618789.57949 -18383390.58047  19382953.272    19382961.802    19382953.657
  -4838148.93549  -3754736.69445  23736515.666    23736531.714    23736515.442
 -19731639.05349 -15351559.83846  20973443.348    20973454.294    20973443.548
   2373532.01849   1850785.77747  21023142.776    21023151.317    21023142.106
 -14641563.44349 -11388779.71046  21725510.064    21725521.178    21725509.943
 -19427215.96749 -15111300.56447  19990949.003    19990956.956    19990948.937
 -18270227.30149 -14223730.71446  21970275.010    21970285.694    21970274.841
 99  5 11 16 58 59.9960000  0  9G 2G26G 4G16G24G 7G 8G 9G 5
   2668066.14249   2078989.67346  22019795.877    22019806.346    22019794.941
   6937089.26149   5403496.97445  24140929.699    24140944.393    24140929.260
 -23687335.06249 -18436802.62447  19369909.506    19369918.013    19369909.884
  -4914580.92849  -3814293.98745  23721971.121    23721987.052    23721970.885
 -19861460.20549 -15452719.10447  20948739.116    20948750.079    20948739.325
   2399981.12449   1871395.39147  21028175.934    21028184.486    21028175.264
 -14765884.33049 -11485653.04146  21701852.544    21701863.598    21701852.422
 -19473832.96849 -15147625.51847  19982078.159    19982086.063    19982078.062
 -18390711.61949 -14317614.52946  21947347.567    21947358.222    21947347.369
 99  5 11 16 59 29.9960000  0  9G 2G26G 4G16G24G 7G 8G 9G 5
   2700692.84549   2104412.90846  22026004.636    22026015.131    22026003.717
   6973984.99049   5432246.63145  24147950.816    24147965.629    24147950.413
 -23755313.46949 -18489772.79147  19356973.644    19356982.148    19356974.007
  -4990668.40449  -3873582.93945  23707492.100    23707507.855    23707491.902
 -19990998.79949 -15553658.20547  20924088.701    20924099.631    20924088.897
   2426521.56949   1892076.18047  21033226.448    21033235.038    21033225.791
 -14889837.10249 -11582239.52846  21678265.056    21678276.102    21678264.925
 -19519897.13249 -15183519.69247  19973312.484    19973320.344    19973312.383
 -18511166.99649 -14411475.78946  21924425.596    21924436.254    21924425.421
 99  5 11 16 59 59.9960000  0  9G 2G26G 4G16G24G 7G 8G 9G 5
   2733515.39649   2129988.76446  22032250.614    22032261.204    22032249.765
   7010755.01149   5460898.45644  24154947.932    24154962.881    24154947.637
 -23822749.83749 -18542320.58347  19344140.919    19344149.420    19344141.287
  -5066409.83949  -3932602.27745  23693078.907    23693094.446    23693078.644
 -20120270.81649 -15654389.58247  20899489.048    20899499.923    20899489.212
   2453132.20649   1912811.66347  21038290.298    21038298.938    21038289.673
 -15013425.88349 -11678542.39546  21654746.828    21654757.833    21654746.698
 -19565405.73549 -15218980.95147  19964652.443    19964660.337    19964652.360
 -18631597.42849 -14505317.60946  21901508.426    21901519.052    21901508.209
 99  5 11 17  0 29.9960000  0  9G 2G26G 4G16G24G 7G 8G 9G 5
   2766560.53749   2155738.06246  22038539.016    22038549.630    22038538.145
   7047416.09149   5489465.28745  24161924.471    24161939.553    24161924.139
 -23889627.66649 -18594433.15447  19331414.498    19331422.990    19331414.846
  -5141782.02849  -3991333.77845  23678735.866    23678751.664    23678735.783
 -20249273.66949 -15754911.22847  20874940.591    20874951.406    20874940.750
   2479814.53849   1933603.01747  21043367.891    21043376.508    21043367.232
 -15136638.09349 -11774551.82946  21631300.240    21631311.223    21631300.116
 -19610341.26449 -15253995.66947  19956101.461    19956109.383    19956101.416
 -18751986.97449 -14599127.58046  21878599.015    21878609.591    21878598.786
 99  5 11 17  0 59.9960000  0  9G 2G26G 4G16G24G 7G 8G 9G 5
   2799821.14149   2181655.26646  22044868.416    22044879.049    22044867.555
   7083957.76549   5517939.17744  24168878.365    24168893.425    24168878.080
 -23955933.73249 -18646100.18947  19318796.873    19318805.343    19318797.240
  -5216776.25749  -4049770.82045  23664464.896    23664480.740    23664464.724
 -20377998.76349 -15855216.43747  20850445.015    20850455.766    20850445.134
   2506564.82649   1954447.32247  21048458.376    21048467.008    21048457.718
 -15259493.23449 -11870283.01546  21607921.610    21607932.569    21607921.478
 -19654690.32249 -15288553.38847  19947662.134    19947670.050    19947662.087
 -18872333.80049 -14692904.24446  21855697.723    21855708.263    21855697.511
 99  5 11 17  1 29.9960000  0  9G 2G26G 4G16G24G 7G 8G 9G 5
   2833293.83149   2207737.71246  22051238.157    22051248.835    22051237.309
   7120361.46748   5546305.46444  24175805.984    24175820.955    24175805.967
 -24021668.32349 -18697321.92747  19306288.023    19306296.459    19306288.378
  -5291378.37349  -4107902.34145  23650268.659    23650284.288    23650268.457
 -20506441.08849 -15955301.31347  20826003.235    20826013.934    20826003.330
   2533370.56349   1975334.83347  21053559.435    21053568.063    21053558.754
 -15381989.54049 -11965734.59146  21584611.274    21584622.186    21584611.125
 -19698465.07149 -15322663.60047  19939332.112    19939340.003    19939332.047
 -18992637.80049 -14786647.52946  21832804.579    21832815.079    21832804.375
